Time,TemperatureF,DewpointF,PressureIn,WindDirection,WindDirectionDegrees,WindSpeedMPH,WindSpeedGustMPH,Humidity,HourlyPrecipIn,Conditions,Clouds,dailyrainin,SoftwareType,DateUTC
2013-02-23 00:00:00,29.8,20.6,30.16,SSW,202,0.0,0.0,68,0.00,,,0.00,WUHU21636XXSP,2013-02-23 05:00:00,
2013-02-23 00:05:00,29.8,20.9,30.16,ESE,112,0.0,0.0,69,0.00,,,0.00,WUHU21636XXSP,2013-02-23 05:05:00,
2013-02-23 00:10:00,29.8,20.9,30.16,SSE,157,0.0,0.0,69,0.00,,,0.00,WUHU21636XXSP,2013-02-23 05:10:00,
2013-02-23 00:15:00,30.0,21.1,30.16,SE,135,0.0,0.0,69,0.00,,,0.00,WUHU21636XXSP,2013-02-23 05:15:00,
2013-02-23 00:20:00,30.0,21.1,30.16,South,180,0.0,0.0,69,0.00,,,0.00,WUHU21636XXSP,2013-02-23 05:20:00,
2013-02-23 00:21:00,30.0,21.1,30.16,South,180,0.0,0.0,69,0.00,,,0.00,WUHU21636XXSP,2013-02-23 05:21:00,
2013-02-23 00:25:00,30.0,21.1,30.16,SE,135,0.0,0.0,69,0.00,,,0.00,WUHU21636XXSP,2013-02-23 05:25:00,
2013-02-23 00:26:00,30.0,21.1,30.16,SE,135,0.0,0.0,69,0.00,,,0.00,WUHU21636XXSP,2013-02-23 05:26:00,
2013-02-23 00:30:00,30.0,21.5,30.16,ESE,112,1.1,1.1,70,0.00,,,0.00,WUHU21636XXSP,2013-02-23 05:30:00,
2013-02-23 00:31:00,30.0,21.1,30.16,ESE,112,0.0,1.1,69,0.00,,,0.00,WUHU21636XXSP,2013-02-23 05:31:00,
2013-02-23 00:35:00,30.0,21.5,30.16,SE,135,0.0,1.1,70,0.00,,,0.00,WUHU21636XXSP,2013-02-23 05:35:00,
2013-02-23 00:36:00,30.0,21.5,30.16,SE,135,0.0,1.1,70,0.00,,,0.00,WUHU21636XXSP,2013-02-23 05:36:00,
2013-02-23 00:40:00,30.0,21.1,30.16,SE,135,0.0,0.6,69,0.00,,,0.00,WUHU21636XXSP,2013-02-23 05:40:00,
2013-02-23 00:41:00,30.0,21.1,30.16,SE,135,0.0,0.6,69,0.00,,,0.00,WUHU21636XXSP,2013-02-23 05:41:00,
2013-02-23 00:46:00,30.2,21.7,30.15,ESE,112,0.0,0.6,70,0.00,,,0.00,WUHU21636XXSP,2013-02-23 05:46:00,
2013-02-23 00:51:00,30.0,21.5,30.15,ESE,112,0.0,0.0,70,0.00,,,0.00,WUHU21636XXSP,2013-02-23 05:51:00,
2013-02-23 00:56:00,30.0,21.5,30.15,SE,135,0.0,1.1,70,0.00,,,0.00,WUHU21636XXSP,2013-02-23 05:56:00,
2013-02-23 01:01:00,30.2,21.7,30.15,ESE,112,4.6,4.6,70,0.00,,,0.00,WUHU21636XXSP,2013-02-23 06:01:00,
2013-02-23 01:02:00,30.2,21.7,30.15,ESE,112,4.6,4.6,70,0.00,,,0.00,WUHU21636XXSP,2013-02-23 06:02:00,
2013-02-23 01:06:00,30.2,21.7,30.15,ESE,112,0.0,4.6,70,0.00,,,0.00,WUHU21636XXSP,2013-02-23 06:06:00,
2013-02-23 01:07:00,30.2,21.7,30.15,South,180,0.0,4.6,70,0.00,,,0.00,WUHU21636XXSP,2013-02-23 06:07:00,
2013-02-23 01:11:00,30.2,22.0,30.15,SE,135,0.0,4.6,71,0.00,,,0.00,WUHU21636XXSP,2013-02-23 06:11:00,
2013-02-23 01:12:00,30.2,22.0,30.15,SE,135,0.0,0.0,71,0.00,,,0.00,WUHU21636XXSP,2013-02-23 06:12:00,
2013-02-23 01:18:00,30.2,22.0,30.15,SE,135,0.0,0.0,71,0.00,,,0.00,WUHU21636XXSP,2013-02-23 06:18:00,
2013-02-23 01:19:00,30.0,21.8,30.15,ESE,112,0.0,0.0,71,0.00,,,0.00,WUHU21636XXSP,2013-02-23 06:19:00,
2013-02-23 01:23:00,30.0,21.8,30.15,ESE,112,0.0,0.0,71,0.00,,,0.00,WUHU21636XXSP,2013-02-23 06:23:00,
2013-02-23 01:24:00,30.0,21.8,30.15,ESE,112,0.0,0.0,71,0.00,,,0.00,WUHU21636XXSP,2013-02-23 06:24:00,
2013-02-23 01:25:00,30.0,21.8,30.15,ESE,112,0.0,0.0,71,0.00,,,0.00,WUHU21636XXSP,2013-02-23 06:25:00,
2013-02-23 01:28:00,30.2,22.3,30.14,South,180,3.3,3.3,72,0.00,,,0.00,WUHU21636XXSP,2013-02-23 06:28:00,
2013-02-23 01:29:00,30.2,22.3,30.14,South,180,3.3,3.3,72,0.00,,,0.00,WUHU21636XXSP,2013-02-23 06:29:00,
2013-02-23 01:30:00,30.2,22.3,30.14,South,180,3.3,3.3,72,0.00,,,0.00,WUHU21636XXSP,2013-02-23 06:30:00,
2013-02-23 01:33:00,30.2,22.3,30.14,SE,135,0.0,3.3,72,0.00,,,0.00,WUHU21636XXSP,2013-02-23 06:33:00,
2013-02-23 01:34:00,30.2,22.3,30.14,SE,135,0.0,3.3,72,0.00,,,0.00,WUHU21636XXSP,2013-02-23 06:34:00,
2013-02-23 01:35:00,30.0,22.1,30.14,ESE,112,0.8,3.3,72,0.00,,,0.00,WUHU21636XXSP,2013-02-23 06:35:00,
2013-02-23 01:38:00,30.0,22.1,30.14,ESE,112,0.0,3.3,72,0.00,,,0.00,WUHU21636XXSP,2013-02-23 06:38:00,
2013-02-23 01:39:00,30.0,22.1,30.14,SE,135,0.0,3.3,72,0.00,,,0.00,WUHU21636XXSP,2013-02-23 06:39:00,
2013-02-23 01:40:00,30.0,22.1,30.14,SE,135,0.0,0.8,72,0.00,,,0.00,WUHU21636XXSP,2013-02-23 06:40:00,
2013-02-23 01:43:00,30.2,22.3,30.14,ESE,112,0.0,0.8,72,0.00,,,0.00,WUHU21636XXSP,2013-02-23 06:43:00,
2013-02-23 01:44:00,30.2,22.3,30.14,ESE,112,0.0,0.8,72,0.00,,,0.00,WUHU21636XXSP,2013-02-23 06:44:00,
2013-02-23 01:45:00,30.2,22.3,30.14,ESE,112,0.0,0.8,72,0.00,,,0.00,WUHU21636XXSP,2013-02-23 06:45:00,
2013-02-23 01:46:00,30.2,22.3,30.14,South,180,0.0,0.8,72,0.00,,,0.00,WUHU21636XXSP,2013-02-23 06:46:00,
2013-02-23 01:49:00,30.2,22.3,30.14,SE,135,0.0,0.0,72,0.00,,,0.00,WUHU21636XXSP,2013-02-23 06:49:00,
2013-02-23 01:50:00,30.2,22.3,30.14,ESE,112,0.0,0.0,72,0.00,,,0.00,WUHU21636XXSP,2013-02-23 06:50:00,
2013-02-23 01:51:00,30.2,22.3,30.14,ESE,112,0.0,0.0,72,0.00,,,0.00,WUHU21636XXSP,2013-02-23 06:51:00,
2013-02-23 01:54:00,30.2,22.3,30.14,SE,135,0.0,0.0,72,0.00,,,0.00,WUHU21636XXSP,2013-02-23 06:54:00,
2013-02-23 01:55:00,30.2,22.3,30.14,ESE,112,0.0,0.0,72,0.00,,,0.00,WUHU21636XXSP,2013-02-23 06:55:00,
2013-02-23 01:56:00,30.2,22.3,30.14,SSE,157,0.0,0.0,72,0.00,,,0.00,WUHU21636XXSP,2013-02-23 06:56:00,
2013-02-23 01:59:00,30.2,22.3,30.14,SE,135,0.0,0.0,72,0.00,,,0.00,WUHU21636XXSP,2013-02-23 06:59:00,
2013-02-23 02:00:00,30.2,22.3,30.14,SE,135,0.0,0.0,72,0.00,,,0.00,WUHU21636XXSP,2013-02-23 07:00:00,
2013-02-23 02:01:00,30.2,22.3,30.14,ESE,112,0.0,0.0,72,0.00,,,0.00,WUHU21636XXSP,2013-02-23 07:01:00,
2013-02-23 02:04:00,30.0,22.1,30.14,ESE,112,0.0,0.0,72,0.00,,,0.00,WUHU21636XXSP,2013-02-23 07:04:00,
2013-02-23 02:05:00,30.0,22.1,30.14,ESE,112,0.0,0.0,72,0.00,,,0.00,WUHU21636XXSP,2013-02-23 07:05:00,
2013-02-23 02:06:00,30.0,22.1,30.14,ESE,112,0.0,0.0,72,0.00,,,0.00,WUHU21636XXSP,2013-02-23 07:06:00,
2013-02-23 02:09:00,30.0,22.4,30.14,ESE,112,0.0,0.0,73,0.00,,,0.00,WUHU21636XXSP,2013-02-23 07:09:00,
2013-02-23 02:10:00,30.0,22.1,30.14,ESE,112,0.0,0.0,72,0.00,,,0.00,WUHU21636XXSP,2013-02-23 07:10:00,
2013-02-23 02:12:00,30.0,22.4,30.14,ESE,112,0.0,0.0,73,0.00,,,0.00,WUHU21636XXSP,2013-02-23 07:12:00,
2013-02-23 02:14:00,29.8,22.2,30.13,ESE,112,0.0,0.0,73,0.00,,,0.00,WUHU21636XXSP,2013-02-23 07:14:00,
2013-02-23 02:15:00,29.8,22.2,30.13,ESE,112,0.0,0.0,73,0.00,,,0.00,WUHU21636XXSP,2013-02-23 07:15:00,
2013-02-23 02:17:00,29.8,22.2,30.13,ESE,112,0.0,0.0,73,0.00,,,0.00,WUHU21636XXSP,2013-02-23 07:17:00,
2013-02-23 02:19:00,29.8,22.2,30.13,ESE,112,0.0,0.0,73,0.00,,,0.00,WUHU21636XXSP,2013-02-23 07:19:00,
2013-02-23 02:20:00,29.8,22.2,30.13,ESE,112,0.0,0.0,73,0.00,,,0.00,WUHU21636XXSP,2013-02-23 07:20:00,
2013-02-23 02:22:00,29.8,22.2,30.13,ESE,112,0.0,0.0,73,0.00,,,0.00,WUHU21636XXSP,2013-02-23 07:22:00,
2013-02-23 02:24:00,29.8,22.2,30.13,ESE,112,0.0,0.0,73,0.00,,,0.00,WUHU21636XXSP,2013-02-23 07:24:00,
2013-02-23 02:25:00,29.8,22.2,30.13,ESE,112,0.0,0.0,73,0.00,,,0.00,WUHU21636XXSP,2013-02-23 07:25:00,
2013-02-23 02:27:00,29.8,22.2,30.13,ESE,112,0.0,0.0,73,0.00,,,0.00,WUHU21636XXSP,2013-02-23 07:27:00,
2013-02-23 02:30:00,29.8,22.2,30.13,ESE,112,0.0,0.0,73,0.00,,,0.00,WUHU21636XXSP,2013-02-23 07:30:00,
2013-02-23 02:32:00,29.8,22.2,30.13,ESE,112,0.0,0.0,73,0.00,,,0.00,WUHU21636XXSP,2013-02-23 07:32:00,
2013-02-23 02:35:00,29.8,22.2,30.13,ESE,112,0.0,0.0,73,0.00,,,0.00,WUHU21636XXSP,2013-02-23 07:35:00,
2013-02-23 02:36:00,29.8,22.2,30.13,ESE,112,0.0,0.0,73,0.00,,,0.00,WUHU21636XXSP,2013-02-23 07:36:00,
2013-02-23 02:37:00,29.8,22.2,30.13,ESE,112,0.0,0.0,73,0.00,,,0.00,WUHU21636XXSP,2013-02-23 07:37:00,
2013-02-23 02:40:00,29.8,22.2,30.13,ESE,112,0.0,0.0,73,0.00,,,0.00,WUHU21636XXSP,2013-02-23 07:40:00,
2013-02-23 02:41:00,29.8,22.2,30.13,ESE,112,0.0,0.0,73,0.00,,,0.00,WUHU21636XXSP,2013-02-23 07:41:00,
2013-02-23 02:42:00,29.8,22.2,30.13,ESE,112,0.0,0.0,73,0.00,,,0.00,WUHU21636XXSP,2013-02-23 07:42:00,
2013-02-23 02:45:00,29.8,22.2,30.13,ESE,112,0.0,0.0,73,0.00,,,0.00,WUHU21636XXSP,2013-02-23 07:45:00,
2013-02-23 02:46:00,29.8,22.2,30.13,ESE,112,0.0,0.0,73,0.00,,,0.00,WUHU21636XXSP,2013-02-23 07:46:00,
2013-02-23 02:47:00,29.8,22.2,30.13,ESE,112,0.0,0.0,73,0.00,,,0.00,WUHU21636XXSP,2013-02-23 07:47:00,
2013-02-23 02:50:00,30.0,22.8,30.13,SE,135,0.0,0.0,74,0.00,,,0.00,WUHU21636XXSP,2013-02-23 07:50:00,
2013-02-23 02:51:00,30.0,22.8,30.13,SE,135,0.0,0.0,74,0.00,,,0.00,WUHU21636XXSP,2013-02-23 07:51:00,
2013-02-23 02:53:00,30.0,22.8,30.13,SSE,157,0.0,0.0,74,0.00,,,0.00,WUHU21636XXSP,2013-02-23 07:53:00,
2013-02-23 02:55:00,30.0,22.8,30.13,SSE,157,0.0,0.0,74,0.00,,,0.00,WUHU21636XXSP,2013-02-23 07:55:00,
2013-02-23 02:56:00,30.0,22.8,30.12,SSE,157,0.0,0.0,74,0.00,,,0.00,WUHU21636XXSP,2013-02-23 07:56:00,
2013-02-23 02:58:00,30.2,23.0,30.12,North,0,0.0,0.0,74,0.00,,,0.00,WUHU21636XXSP,2013-02-23 07:58:00,
2013-02-23 03:00:00,30.0,22.8,30.12,NE,45,0.0,0.0,74,0.00,,,0.00,WUHU21636XXSP,2013-02-23 08:00:00,
2013-02-23 03:01:00,30.2,23.0,30.12,ESE,112,0.8,0.8,74,0.00,,,0.00,WUHU21636XXSP,2013-02-23 08:01:00,
2013-02-23 03:02:00,30.2,23.0,30.12,ESE,112,0.8,0.8,74,0.00,,,0.00,WUHU21636XXSP,2013-02-23 08:02:00,
2013-02-23 03:03:00,30.2,23.0,30.12,ESE,112,0.0,0.8,74,0.00,,,0.00,WUHU21636XXSP,2013-02-23 08:03:00,
2013-02-23 03:05:00,30.2,23.0,30.12,ESE,112,0.0,0.8,74,0.00,,,0.00,WUHU21636XXSP,2013-02-23 08:05:00,
2013-02-23 03:07:00,30.2,23.0,30.12,ESE,112,0.0,0.8,74,0.00,,,0.00,WUHU21636XXSP,2013-02-23 08:07:00,
2013-02-23 03:08:00,30.2,23.0,30.12,ESE,112,0.0,0.8,74,0.00,,,0.00,WUHU21636XXSP,2013-02-23 08:08:00,
2013-02-23 03:10:00,30.2,23.0,30.12,SE,135,0.0,0.8,74,0.00,,,0.00,WUHU21636XXSP,2013-02-23 08:10:00,
2013-02-23 03:12:00,30.2,23.0,30.11,South,180,0.0,0.8,74,0.00,,,0.00,WUHU21636XXSP,2013-02-23 08:12:00,
2013-02-23 03:14:00,30.2,23.0,30.11,South,180,0.0,0.0,74,0.00,,,0.00,WUHU21636XXSP,2013-02-23 08:14:00,
2013-02-23 03:15:00,30.4,23.1,30.11,WSW,247,0.0,0.0,74,0.00,,,0.00,WUHU21636XXSP,2013-02-23 08:15:00,
2013-02-23 03:17:00,30.4,23.1,30.11,SE,135,2.9,2.9,74,0.00,,,0.00,WUHU21636XXSP,2013-02-23 08:17:00,
2013-02-23 03:18:00,30.4,23.1,30.11,SE,135,2.9,2.9,74,0.00,,,0.00,WUHU21636XXSP,2013-02-23 08:18:00,
2013-02-23 03:19:00,30.4,23.1,30.11,SSE,157,3.3,3.3,74,0.00,,,0.00,WUHU21636XXSP,2013-02-23 08:19:00,
2013-02-23 03:20:00,30.5,23.2,30.11,ENE,67,0.0,3.3,74,0.00,,,0.00,WUHU21636XXSP,2013-02-23 08:20:00,
2013-02-23 03:22:00,30.5,23.2,30.11,ENE,67,0.0,3.3,74,0.00,,,0.00,WUHU21636XXSP,2013-02-23 08:22:00,
2013-02-23 03:23:00,30.5,23.2,30.11,SE,135,0.0,3.3,74,0.00,,,0.00,WUHU21636XXSP,2013-02-23 08:23:00,
2013-02-23 03:24:00,30.5,23.2,30.11,SE,135,0.0,3.3,74,0.00,,,0.00,WUHU21636XXSP,2013-02-23 08:24:00,
2013-02-23 03:26:00,30.5,23.2,30.11,SE,135,1.7,3.3,74,0.00,,,0.00,WUHU21636XXSP,2013-02-23 08:26:00,
2013-02-23 03:27:00,30.5,23.6,30.11,ENE,67,0.0,3.3,75,0.00,,,0.00,WUHU21636XXSP,2013-02-23 08:27:00,
2013-02-23 03:28:00,30.5,23.6,30.11,ENE,67,0.0,3.3,75,0.00,,,0.00,WUHU21636XXSP,2013-02-23 08:28:00,
2013-02-23 03:29:00,30.5,23.6,30.11,ENE,67,0.0,3.3,75,0.00,,,0.00,WUHU21636XXSP,2013-02-23 08:29:00,
2013-02-23 03:31:00,30.5,23.6,30.10,ENE,67,0.0,1.7,75,0.00,,,0.00,WUHU21636XXSP,2013-02-23 08:31:00,
2013-02-23 03:32:00,30.5,23.6,30.10,ENE,67,0.0,1.7,75,0.00,,,0.00,WUHU21636XXSP,2013-02-23 08:32:00,
2013-02-23 03:33:00,30.5,23.6,30.11,ENE,67,0.0,1.7,75,0.00,,,0.00,WUHU21636XXSP,2013-02-23 08:33:00,
2013-02-23 03:34:00,30.5,23.6,30.11,ENE,67,0.0,1.7,75,0.00,,,0.00,WUHU21636XXSP,2013-02-23 08:34:00,
2013-02-23 03:36:00,30.5,23.6,30.10,East,90,0.0,1.7,75,0.00,,,0.00,WUHU21636XXSP,2013-02-23 08:36:00,
2013-02-23 03:37:00,30.5,23.6,30.10,East,90,0.0,0.0,75,0.00,,,0.00,WUHU21636XXSP,2013-02-23 08:37:00,
2013-02-23 03:38:00,30.5,23.6,30.11,East,90,0.0,0.0,75,0.00,,,0.00,WUHU21636XXSP,2013-02-23 08:38:00,
2013-02-23 03:39:00,30.5,23.6,30.11,East,90,0.0,0.0,75,0.00,,,0.00,WUHU21636XXSP,2013-02-23 08:39:00,
2013-02-23 03:41:00,30.5,23.6,30.10,ESE,112,0.0,0.0,75,0.00,,,0.00,WUHU21636XXSP,2013-02-23 08:41:00,
2013-02-23 03:42:00,30.5,23.6,30.11,SE,135,0.0,0.0,75,0.00,,,0.00,WUHU21636XXSP,2013-02-23 08:42:00,
2013-02-23 03:44:00,30.5,23.6,30.11,SE,135,0.0,0.0,75,0.00,,,0.00,WUHU21636XXSP,2013-02-23 08:44:00,
2013-02-23 03:45:00,30.5,23.6,30.11,ESE,112,0.0,0.0,75,0.00,,,0.00,WUHU21636XXSP,2013-02-23 08:45:00,
2013-02-23 03:46:00,30.5,23.9,30.11,ESE,112,0.0,0.0,76,0.00,,,0.00,WUHU21636XXSP,2013-02-23 08:46:00,
2013-02-23 03:47:00,30.5,23.9,30.10,ESE,112,0.0,0.0,76,0.00,,,0.00,WUHU21636XXSP,2013-02-23 08:47:00,
2013-02-23 03:49:00,30.5,23.6,30.10,ESE,112,0.0,0.0,75,0.00,,,0.00,WUHU21636XXSP,2013-02-23 08:49:00,
2013-02-23 03:50:00,30.5,23.6,30.10,ESE,112,0.0,0.0,75,0.00,,,0.00,WUHU21636XXSP,2013-02-23 08:50:00,
2013-02-23 03:52:00,30.5,23.6,30.10,ESE,112,0.0,0.0,75,0.00,,,0.00,WUHU21636XXSP,2013-02-23 08:52:00,
2013-02-23 03:53:00,30.5,23.6,30.10,ESE,112,0.0,0.0,75,0.00,,,0.00,WUHU21636XXSP,2013-02-23 08:53:00,
2013-02-23 03:54:00,30.5,23.6,30.10,SSE,157,0.0,0.0,75,0.00,,,0.00,WUHU21636XXSP,2013-02-23 08:54:00,
2013-02-23 03:55:00,30.5,23.9,30.10,SSE,157,0.0,0.0,76,0.00,,,0.00,WUHU21636XXSP,2013-02-23 08:55:00,
2013-02-23 03:57:00,30.5,23.9,30.10,SSE,157,0.0,0.0,76,0.00,,,0.00,WUHU21636XXSP,2013-02-23 08:57:00,
2013-02-23 03:58:00,30.5,23.9,30.10,SSE,157,0.0,0.0,76,0.00,,,0.00,WUHU21636XXSP,2013-02-23 08:58:00,
2013-02-23 03:59:00,30.5,23.9,30.10,SSE,157,0.0,0.0,76,0.00,,,0.00,WUHU21636XXSP,2013-02-23 08:59:00,
2013-02-23 04:00:00,30.5,23.9,30.10,SSE,157,0.0,0.0,76,0.00,,,0.00,WUHU21636XXSP,2013-02-23 09:00:00,
2013-02-23 04:03:00,30.5,23.9,30.10,SSE,157,0.0,0.0,76,0.00,,,0.00,WUHU21636XXSP,2013-02-23 09:03:00,
2013-02-23 04:04:00,30.4,23.8,30.10,SSE,157,0.0,0.0,76,0.00,,,0.00,WUHU21636XXSP,2013-02-23 09:04:00,
2013-02-23 04:06:00,30.4,23.8,30.10,SSE,157,0.0,0.0,76,0.00,,,0.00,WUHU21636XXSP,2013-02-23 09:06:00,
2013-02-23 04:08:00,30.4,23.8,30.10,SSE,157,0.0,0.0,76,0.00,,,0.00,WUHU21636XXSP,2013-02-23 09:08:00,
2013-02-23 04:09:00,30.4,23.8,30.10,ESE,112,0.0,0.0,76,0.00,,,0.00,WUHU21636XXSP,2013-02-23 09:09:00,
2013-02-23 04:11:00,30.5,23.9,30.10,South,180,0.0,0.0,76,0.00,,,0.00,WUHU21636XXSP,2013-02-23 09:11:00,
2013-02-23 04:13:00,30.4,23.8,30.10,South,180,0.0,0.0,76,0.00,,,0.00,WUHU21636XXSP,2013-02-23 09:13:00,
2013-02-23 04:15:00,30.5,23.9,30.10,SE,135,0.0,0.0,76,0.00,,,0.00,WUHU21636XXSP,2013-02-23 09:15:00,
2013-02-23 04:16:00,30.4,23.8,30.10,SSE,157,0.0,0.0,76,0.00,,,0.00,WUHU21636XXSP,2013-02-23 09:16:00,
2013-02-23 04:18:00,30.4,23.8,30.10,SSE,157,0.0,0.0,76,0.00,,,0.00,WUHU21636XXSP,2013-02-23 09:18:00,
2013-02-23 04:20:00,30.4,23.8,30.10,South,180,0.0,0.0,76,0.00,,,0.00,WUHU21636XXSP,2013-02-23 09:20:00,
2013-02-23 04:21:00,30.5,23.9,30.10,SSE,157,0.0,0.0,76,0.00,,,0.00,WUHU21636XXSP,2013-02-23 09:21:00,
2013-02-23 04:23:00,30.5,23.9,30.09,SSE,157,0.0,0.0,76,0.00,,,0.00,WUHU21636XXSP,2013-02-23 09:23:00,
2013-02-23 04:24:00,30.4,23.8,30.10,ESE,112,0.0,0.0,76,0.00,,,0.00,WUHU21636XXSP,2013-02-23 09:24:00,
2013-02-23 04:25:00,30.5,23.9,30.09,ESE,112,0.0,0.0,76,0.00,,,0.00,WUHU21636XXSP,2013-02-23 09:25:00,
2013-02-23 04:26:00,30.5,23.9,30.09,ESE,112,0.0,0.0,76,0.00,,,0.00,WUHU21636XXSP,2013-02-23 09:26:00,
2013-02-23 04:28:00,30.5,23.9,30.09,ESE,112,0.0,0.0,76,0.00,,,0.00,WUHU21636XXSP,2013-02-23 09:28:00,
2013-02-23 04:29:00,30.5,23.9,30.09,ESE,112,0.0,0.0,76,0.00,,,0.00,WUHU21636XXSP,2013-02-23 09:29:00,
2013-02-23 04:30:00,30.4,23.8,30.10,South,180,0.0,0.0,76,0.00,,,0.00,WUHU21636XXSP,2013-02-23 09:30:00,
2013-02-23 04:32:00,30.4,23.8,30.10,South,180,0.0,0.0,76,0.00,,,0.00,WUHU21636XXSP,2013-02-23 09:32:00,
2013-02-23 04:33:00,30.4,23.8,30.09,South,180,0.0,0.0,76,0.00,,,0.00,WUHU21636XXSP,2013-02-23 09:33:00,
2013-02-23 04:34:00,30.5,23.9,30.09,SE,135,0.0,0.0,76,0.00,,,0.00,WUHU21636XXSP,2013-02-23 09:34:00,
2013-02-23 04:35:00,30.5,23.9,30.09,SE,135,0.0,0.0,76,0.00,,,0.00,WUHU21636XXSP,2013-02-23 09:35:00,
2013-02-23 04:37:00,30.5,23.9,30.09,ENE,67,0.0,0.0,76,0.00,,,0.00,WUHU21636XXSP,2013-02-23 09:37:00,
2013-02-23 04:38:00,30.5,23.9,30.09,SE,135,0.0,0.0,76,0.00,,,0.00,WUHU21636XXSP,2013-02-23 09:38:00,
2013-02-23 04:39:00,30.5,23.9,30.09,SE,135,0.0,0.0,76,0.00,,,0.00,WUHU21636XXSP,2013-02-23 09:39:00,
2013-02-23 04:40:00,30.5,23.9,30.09,SE,135,0.0,0.0,76,0.00,,,0.00,WUHU21636XXSP,2013-02-23 09:40:00,
2013-02-23 04:42:00,30.5,23.9,30.09,ESE,112,2.9,2.9,76,0.00,,,0.00,WUHU21636XXSP,2013-02-23 09:42:00,
2013-02-23 04:43:00,30.5,23.9,30.09,ESE,112,0.0,2.9,76,0.00,,,0.00,WUHU21636XXSP,2013-02-23 09:43:00,
2013-02-23 04:45:00,30.5,23.9,30.09,ESE,112,0.0,2.9,76,0.00,,,0.00,WUHU21636XXSP,2013-02-23 09:45:00,
2013-02-23 04:47:00,30.5,23.9,30.10,ESE,112,0.0,2.9,76,0.00,,,0.00,WUHU21636XXSP,2013-02-23 09:47:00,
2013-02-23 04:48:00,30.5,23.9,30.10,ESE,112,0.0,2.9,76,0.00,,,0.00,WUHU21636XXSP,2013-02-23 09:48:00,
2013-02-23 04:50:00,30.5,23.9,30.10,SE,135,0.0,2.9,76,0.00,,,0.00,WUHU21636XXSP,2013-02-23 09:50:00,
2013-02-23 04:52:00,30.5,23.9,30.10,SE,135,0.0,0.0,76,0.00,,,0.00,WUHU21636XXSP,2013-02-23 09:52:00,
2013-02-23 04:54:00,30.5,23.9,30.10,ESE,112,0.0,0.0,76,0.00,,,0.00,WUHU21636XXSP,2013-02-23 09:54:00,
2013-02-23 04:55:00,30.5,23.9,30.10,ESE,112,0.0,0.0,76,0.00,,,0.00,WUHU21636XXSP,2013-02-23 09:55:00,
2013-02-23 04:56:00,30.5,23.9,30.10,East,90,0.0,0.0,76,0.00,,,0.00,WUHU21636XXSP,2013-02-23 09:56:00,
2013-02-23 04:58:00,30.5,23.9,30.10,East,90,0.0,0.0,76,0.00,,,0.00,WUHU21636XXSP,2013-02-23 09:58:00,
2013-02-23 04:59:00,30.5,23.9,30.10,East,90,0.0,0.0,76,0.00,,,0.00,WUHU21636XXSP,2013-02-23 09:59:00,
2013-02-23 05:00:00,30.5,24.2,30.10,ENE,67,1.5,1.5,77,0.00,,,0.00,WUHU21636XXSP,2013-02-23 10:00:00,
2013-02-23 05:01:00,30.5,24.2,30.10,ENE,67,1.5,1.5,77,0.00,,,0.00,WUHU21636XXSP,2013-02-23 10:01:00,
2013-02-23 05:03:00,30.4,23.8,30.10,ESE,112,0.0,1.5,76,0.00,,,0.00,WUHU21636XXSP,2013-02-23 10:03:00,
2013-02-23 05:04:00,30.4,23.8,30.10,ESE,112,0.0,1.5,76,0.00,,,0.00,WUHU21636XXSP,2013-02-23 10:04:00,
2013-02-23 05:05:00,30.5,23.9,30.10,SSE,157,0.0,1.5,76,0.00,,,0.00,WUHU21636XXSP,2013-02-23 10:05:00,
2013-02-23 05:06:00,30.4,23.8,30.10,South,180,0.0,1.5,76,0.00,,,0.00,WUHU21636XXSP,2013-02-23 10:06:00,
2013-02-23 05:08:00,30.4,23.8,30.10,SSE,157,0.0,1.5,76,0.00,,,0.00,WUHU21636XXSP,2013-02-23 10:08:00,
2013-02-23 05:09:00,30.4,23.8,30.10,SSE,157,0.0,1.5,76,0.00,,,0.00,WUHU21636XXSP,2013-02-23 10:09:00,
2013-02-23 05:10:00,30.4,23.8,30.10,SSE,157,0.0,1.5,76,0.00,,,0.00,WUHU21636XXSP,2013-02-23 10:10:00,
2013-02-23 05:11:00,30.4,24.1,30.10,SSE,157,0.0,1.5,77,0.00,,,0.00,WUHU21636XXSP,2013-02-23 10:11:00,
2013-02-23 05:13:00,30.4,24.1,30.10,SSE,157,0.0,0.0,77,0.00,,,0.00,WUHU21636XXSP,2013-02-23 10:13:00,
2013-02-23 05:14:00,30.4,24.1,30.09,SSE,157,0.0,0.0,77,0.00,,,0.00,WUHU21636XXSP,2013-02-23 10:14:00,
2013-02-23 05:15:00,30.4,24.1,30.10,SSE,157,0.0,0.0,77,0.00,,,0.00,WUHU21636XXSP,2013-02-23 10:15:00,
2013-02-23 05:16:00,30.4,24.1,30.10,SSE,157,0.0,0.0,77,0.00,,,0.00,WUHU21636XXSP,2013-02-23 10:16:00,
2013-02-23 05:18:00,30.4,24.1,30.09,SSE,157,0.0,0.0,77,0.00,,,0.00,WUHU21636XXSP,2013-02-23 10:18:00,
2013-02-23 05:19:00,30.2,23.9,30.09,SE,135,0.0,0.0,77,0.00,,,0.00,WUHU21636XXSP,2013-02-23 10:19:00,
2013-02-23 05:20:00,30.2,23.9,30.09,SE,135,0.0,0.0,77,0.00,,,0.00,WUHU21636XXSP,2013-02-23 10:20:00,
2013-02-23 05:21:00,30.2,23.9,30.09,SE,135,0.0,0.0,77,0.00,,,0.00,WUHU21636XXSP,2013-02-23 10:21:00,
2013-02-23 05:24:00,30.2,23.9,30.09,SSE,157,0.0,0.0,77,0.00,,,0.00,WUHU21636XXSP,2013-02-23 10:24:00,
2013-02-23 05:25:00,30.2,23.9,30.09,SSE,157,0.0,0.0,77,0.00,,,0.00,WUHU21636XXSP,2013-02-23 10:25:00,
2013-02-23 05:26:00,30.2,23.9,30.10,SE,135,0.0,0.0,77,0.00,,,0.00,WUHU21636XXSP,2013-02-23 10:26:00,
2013-02-23 05:29:00,30.2,23.9,30.09,SE,135,0.0,0.0,77,0.00,,,0.00,WUHU21636XXSP,2013-02-23 10:29:00,
2013-02-23 05:30:00,30.2,23.9,30.09,SE,135,0.0,0.0,77,0.00,,,0.00,WUHU21636XXSP,2013-02-23 10:30:00,
2013-02-23 05:31:00,30.2,23.9,30.09,SE,135,0.0,0.0,77,0.00,,,0.00,WUHU21636XXSP,2013-02-23 10:31:00,
2013-02-23 05:34:00,30.2,23.9,30.09,SE,135,0.0,0.0,77,0.00,,,0.00,WUHU21636XXSP,2013-02-23 10:34:00,
2013-02-23 05:36:00,30.2,23.9,30.09,SE,135,0.0,0.0,77,0.00,,,0.00,WUHU21636XXSP,2013-02-23 10:36:00,
2013-02-23 05:39:00,30.2,23.9,30.09,SE,135,0.0,0.0,77,0.00,,,0.00,WUHU21636XXSP,2013-02-23 10:39:00,
2013-02-23 05:40:00,30.2,23.9,30.09,SE,135,0.0,0.0,77,0.00,,,0.00,WUHU21636XXSP,2013-02-23 10:40:00,
2013-02-23 05:41:00,30.2,23.9,30.09,SE,135,0.0,0.0,77,0.00,,,0.00,WUHU21636XXSP,2013-02-23 10:41:00,
2013-02-23 05:45:00,30.2,23.9,30.09,ESE,112,0.0,0.0,77,0.00,,,0.00,WUHU21636XXSP,2013-02-23 10:45:00,
2013-02-23 05:46:00,30.2,23.9,30.09,ESE,112,0.0,0.0,77,0.00,,,0.00,WUHU21636XXSP,2013-02-23 10:46:00,
2013-02-23 05:50:00,30.2,23.9,30.08,ESE,112,0.0,0.0,77,0.00,,,0.00,WUHU21636XXSP,2013-02-23 10:50:00,
2013-02-23 05:51:00,30.2,23.9,30.08,ESE,112,0.0,0.0,77,0.00,,,0.00,WUHU21636XXSP,2013-02-23 10:51:00,
2013-02-23 05:52:00,30.2,23.9,30.08,ESE,112,0.0,0.0,77,0.00,,,0.00,WUHU21636XXSP,2013-02-23 10:52:00,
2013-02-23 05:55:00,30.2,23.9,30.08,ESE,112,0.0,0.0,77,0.00,,,0.00,WUHU21636XXSP,2013-02-23 10:55:00,
2013-02-23 05:56:00,30.2,23.9,30.08,ESE,112,0.0,0.0,77,0.00,,,0.00,WUHU21636XXSP,2013-02-23 10:56:00,
2013-02-23 05:57:00,30.2,23.9,30.08,ESE,112,0.0,0.0,77,0.00,,,0.00,WUHU21636XXSP,2013-02-23 10:57:00,
2013-02-23 06:00:00,30.2,23.9,30.08,ESE,112,0.0,0.0,77,0.00,,,0.00,WUHU21636XXSP,2013-02-23 11:00:00,
2013-02-23 06:02:00,30.2,23.9,30.08,ESE,112,0.0,0.0,77,0.00,,,0.00,WUHU21636XXSP,2013-02-23 11:02:00,
2013-02-23 06:05:00,30.0,23.7,30.08,ESE,112,0.0,0.0,77,0.00,,,0.00,WUHU21636XXSP,2013-02-23 11:05:00,
2013-02-23 06:07:00,30.2,23.9,30.08,ESE,112,0.0,0.0,77,0.00,,,0.00,WUHU21636XXSP,2013-02-23 11:07:00,
2013-02-23 06:08:00,30.2,23.9,30.08,ESE,112,0.0,0.0,77,0.00,,,0.00,WUHU21636XXSP,2013-02-23 11:08:00,
2013-02-23 06:10:00,30.2,23.9,30.08,ESE,112,0.0,0.0,77,0.00,,,0.00,WUHU21636XXSP,2013-02-23 11:10:00,
2013-02-23 06:11:00,30.2,23.9,30.08,ESE,112,0.0,0.0,77,0.00,,,0.00,WUHU21636XXSP,2013-02-23 11:11:00,
2013-02-23 06:12:00,30.2,23.9,30.08,ESE,112,0.0,0.0,77,0.00,,,0.00,WUHU21636XXSP,2013-02-23 11:12:00,
2013-02-23 06:13:00,30.2,23.9,30.07,ESE,112,0.0,0.0,77,0.00,,,0.00,WUHU21636XXSP,2013-02-23 11:13:00,
2013-02-23 06:15:00,30.2,23.9,30.07,ESE,112,0.0,0.0,77,0.00,,,0.00,WUHU21636XXSP,2013-02-23 11:15:00,
2013-02-23 06:16:00,30.2,23.9,30.07,ESE,112,0.0,0.0,77,0.00,,,0.00,WUHU21636XXSP,2013-02-23 11:16:00,
2013-02-23 06:17:00,30.2,23.9,30.07,ESE,112,0.0,0.0,77,0.00,,,0.00,WUHU21636XXSP,2013-02-23 11:17:00,
2013-02-23 06:18:00,30.2,23.9,30.07,ESE,112,0.0,0.0,77,0.00,,,0.00,WUHU21636XXSP,2013-02-23 11:18:00,
2013-02-23 06:20:00,30.2,23.9,30.07,ESE,112,0.0,0.0,77,0.00,,,0.00,WUHU21636XXSP,2013-02-23 11:20:00,
2013-02-23 06:21:00,30.2,23.9,30.07,ESE,112,0.0,0.0,77,0.00,,,0.00,WUHU21636XXSP,2013-02-23 11:21:00,
2013-02-23 06:23:00,30.2,24.2,30.07,ESE,112,0.0,0.0,78,0.00,,,0.00,WUHU21636XXSP,2013-02-23 11:23:00,
2013-02-23 06:25:00,30.2,24.2,30.07,ESE,112,0.0,0.0,78,0.00,,,0.00,WUHU21636XXSP,2013-02-23 11:25:00,
2013-02-23 06:26:00,30.2,24.2,30.07,SE,135,0.0,0.0,78,0.00,,,0.00,WUHU21636XXSP,2013-02-23 11:26:00,
2013-02-23 06:28:00,30.2,24.2,30.07,SE,135,0.0,0.0,78,0.00,,,0.00,WUHU21636XXSP,2013-02-23 11:28:00,
2013-02-23 06:31:00,30.2,24.2,30.07,SE,135,0.0,0.0,78,0.00,,,0.00,WUHU21636XXSP,2013-02-23 11:31:00,
2013-02-23 06:33:00,30.2,24.2,30.07,SE,135,0.0,0.0,78,0.00,,,0.00,WUHU21636XXSP,2013-02-23 11:33:00,
2013-02-23 06:36:00,30.2,24.2,30.07,SE,135,0.0,0.0,78,0.00,,,0.00,WUHU21636XXSP,2013-02-23 11:36:00,
2013-02-23 06:38:00,30.2,24.2,30.07,SE,135,0.0,0.0,78,0.00,,,0.00,WUHU21636XXSP,2013-02-23 11:38:00,
2013-02-23 06:39:00,30.2,24.2,30.07,SE,135,0.0,0.0,78,0.00,,,0.00,WUHU21636XXSP,2013-02-23 11:39:00,
2013-02-23 06:41:00,30.2,24.2,30.07,SE,135,0.0,0.0,78,0.00,,,0.00,WUHU21636XXSP,2013-02-23 11:41:00,
2013-02-23 06:42:00,30.2,24.2,30.07,SE,135,0.0,0.0,78,0.00,,,0.00,WUHU21636XXSP,2013-02-23 11:42:00,
2013-02-23 06:44:00,30.2,24.2,30.07,SE,135,0.0,0.0,78,0.00,,,0.00,WUHU21636XXSP,2013-02-23 11:44:00,
2013-02-23 06:46:00,30.2,24.2,30.07,SE,135,0.0,0.0,78,0.00,,,0.00,WUHU21636XXSP,2013-02-23 11:46:00,
2013-02-23 06:47:00,30.2,24.2,30.07,SE,135,0.0,0.0,78,0.00,,,0.00,WUHU21636XXSP,2013-02-23 11:47:00,
2013-02-23 06:49:00,30.2,24.2,30.07,SE,135,0.0,0.0,78,0.00,,,0.00,WUHU21636XXSP,2013-02-23 11:49:00,
2013-02-23 06:50:00,30.2,24.5,30.07,SE,135,0.0,0.0,79,0.00,,,0.00,WUHU21636XXSP,2013-02-23 11:50:00,
2013-02-23 06:51:00,30.2,24.5,30.07,SE,135,0.0,0.0,79,0.00,,,0.00,WUHU21636XXSP,2013-02-23 11:51:00,
2013-02-23 06:52:00,30.2,24.5,30.07,SE,135,0.0,0.0,79,0.00,,,0.00,WUHU21636XXSP,2013-02-23 11:52:00,
2013-02-23 06:54:00,30.2,24.5,30.07,ESE,112,0.0,0.0,79,0.00,,,0.00,WUHU21636XXSP,2013-02-23 11:54:00,
2013-02-23 06:55:00,30.2,24.5,30.07,ESE,112,0.0,0.0,79,0.00,,,0.00,WUHU21636XXSP,2013-02-23 11:55:00,
2013-02-23 06:56:00,30.2,24.5,30.07,East,90,2.9,2.9,79,0.00,,,0.00,WUHU21636XXSP,2013-02-23 11:56:00,
2013-02-23 06:57:00,30.2,24.5,30.07,East,90,2.9,2.9,79,0.00,,,0.00,WUHU21636XXSP,2013-02-23 11:57:00,
2013-02-23 06:59:00,30.2,24.5,30.07,SSE,157,0.0,2.9,79,0.00,,,0.00,WUHU21636XXSP,2013-02-23 11:59:00,
2013-02-23 07:00:00,30.2,24.5,30.07,SSE,157,0.0,2.9,79,0.00,,,0.00,WUHU21636XXSP,2013-02-23 12:00:00,
2013-02-23 07:02:00,30.2,24.5,30.07,ESE,112,0.0,2.9,79,0.00,,,0.00,WUHU21636XXSP,2013-02-23 12:02:00,
2013-02-23 07:04:00,30.2,24.5,30.07,ESE,112,0.0,2.9,79,0.00,,,0.00,WUHU21636XXSP,2013-02-23 12:04:00,
2013-02-23 07:05:00,30.2,24.5,30.07,ESE,112,0.0,2.9,79,0.00,,,0.00,WUHU21636XXSP,2013-02-23 12:05:00,
2013-02-23 07:07:00,30.2,24.5,30.07,ESE,112,0.0,2.9,79,0.00,,,0.00,WUHU21636XXSP,2013-02-23 12:07:00,
2013-02-23 07:09:00,30.2,24.5,30.07,SSE,157,0.0,0.0,79,0.00,,,0.00,WUHU21636XXSP,2013-02-23 12:09:00,
2013-02-23 07:10:00,30.2,24.5,30.07,SSE,157,0.0,0.0,79,0.00,,,0.00,WUHU21636XXSP,2013-02-23 12:10:00,
2013-02-23 07:12:00,30.4,24.7,30.07,SE,135,0.0,0.0,79,0.00,,,0.00,WUHU21636XXSP,2013-02-23 12:12:00,
2013-02-23 07:15:00,30.4,24.7,30.06,SE,135,0.0,0.0,79,0.00,,,0.00,WUHU21636XXSP,2013-02-23 12:15:00,
2013-02-23 07:17:00,30.4,24.7,30.07,SE,135,0.0,0.0,79,0.00,,,0.00,WUHU21636XXSP,2013-02-23 12:17:00,
2013-02-23 07:18:00,30.4,24.7,30.07,ESE,112,0.0,0.0,79,0.00,,,0.00,WUHU21636XXSP,2013-02-23 12:18:00,
2013-02-23 07:20:00,30.4,24.7,30.06,ESE,112,0.0,0.0,79,0.00,,,0.00,WUHU21636XXSP,2013-02-23 12:20:00,
2013-02-23 07:22:00,30.4,24.7,30.06,ESE,112,0.0,0.0,79,0.00,,,0.00,WUHU21636XXSP,2013-02-23 12:22:00,
2013-02-23 07:23:00,30.4,24.7,30.06,ESE,112,0.0,0.0,79,0.00,,,0.00,WUHU21636XXSP,2013-02-23 12:23:00,
2013-02-23 07:25:00,30.4,24.7,30.06,ESE,112,0.0,0.0,79,0.00,,,0.00,WUHU21636XXSP,2013-02-23 12:25:00,
2013-02-23 07:27:00,30.5,24.8,30.06,ESE,112,0.0,0.0,79,0.00,,,0.00,WUHU21636XXSP,2013-02-23 12:27:00,
2013-02-23 07:28:00,30.5,24.8,30.06,ESE,112,0.0,0.0,79,0.00,,,0.00,WUHU21636XXSP,2013-02-23 12:28:00,
2013-02-23 07:30:00,30.5,24.8,30.06,East,90,0.0,0.0,79,0.00,,,0.00,WUHU21636XXSP,2013-02-23 12:30:00,
2013-02-23 07:31:00,30.5,24.8,30.06,East,90,0.0,0.0,79,0.00,,,0.00,WUHU21636XXSP,2013-02-23 12:31:00,
2013-02-23 07:32:00,30.5,24.8,30.06,East,90,0.0,0.0,79,0.00,,,0.00,WUHU21636XXSP,2013-02-23 12:32:00,
2013-02-23 07:33:00,30.5,24.8,30.06,ESE,112,0.0,0.0,79,0.00,,,0.00,WUHU21636XXSP,2013-02-23 12:33:00,
2013-02-23 07:35:00,30.7,25.0,30.06,ESE,112,0.0,0.0,79,0.00,,,0.00,WUHU21636XXSP,2013-02-23 12:35:00,
2013-02-23 07:36:00,30.7,25.0,30.06,ESE,112,0.0,0.0,79,0.00,,,0.00,WUHU21636XXSP,2013-02-23 12:36:00,
2013-02-23 07:37:00,30.7,25.0,30.06,ESE,112,0.0,0.0,79,0.00,,,0.00,WUHU21636XXSP,2013-02-23 12:37:00,
2013-02-23 07:38:00,30.7,25.0,30.06,ESE,112,0.0,0.0,79,0.00,,,0.00,WUHU21636XXSP,2013-02-23 12:38:00,
2013-02-23 07:41:00,30.7,25.0,30.06,ESE,112,0.0,0.0,79,0.00,,,0.00,WUHU21636XXSP,2013-02-23 12:41:00,
2013-02-23 07:42:00,30.9,25.2,30.06,ESE,112,0.0,0.0,79,0.00,,,0.00,WUHU21636XXSP,2013-02-23 12:42:00,
2013-02-23 07:43:00,30.9,25.2,30.06,ESE,112,0.0,0.0,79,0.00,,,0.00,WUHU21636XXSP,2013-02-23 12:43:00,
2013-02-23 07:46:00,31.1,25.4,30.06,ESE,112,0.0,0.0,79,0.00,,,0.00,WUHU21636XXSP,2013-02-23 12:46:00,
2013-02-23 07:48:00,31.1,25.4,30.06,ESE,112,0.0,0.0,79,0.00,,,0.00,WUHU21636XXSP,2013-02-23 12:48:00,
2013-02-23 07:51:00,31.1,25.4,30.06,ESE,112,0.0,0.0,79,0.00,,,0.00,WUHU21636XXSP,2013-02-23 12:51:00,
2013-02-23 07:53:00,31.3,25.6,30.06,ESE,112,0.0,0.0,79,0.00,,,0.00,WUHU21636XXSP,2013-02-23 12:53:00,
2013-02-23 07:56:00,31.4,25.7,30.06,East,90,0.0,0.0,79,0.00,,,0.00,WUHU21636XXSP,2013-02-23 12:56:00,
2013-02-23 07:58:00,31.4,25.4,30.06,ESE,112,0.0,0.0,78,0.00,,,0.00,WUHU21636XXSP,2013-02-23 12:58:00,
2013-02-23 08:01:00,31.4,25.4,30.06,ESE,112,0.0,0.0,78,0.00,,,0.00,WUHU21636XXSP,2013-02-23 13:01:00,
2013-02-23 08:03:00,31.6,25.5,30.06,South,180,0.0,0.0,78,0.00,,,0.00,WUHU21636XXSP,2013-02-23 13:03:00,
2013-02-23 08:04:00,31.6,25.5,30.06,South,180,0.0,0.0,78,0.00,,,0.00,WUHU21636XXSP,2013-02-23 13:04:00,
2013-02-23 08:06:00,31.6,25.5,30.06,ESE,112,3.8,3.8,78,0.00,,,0.00,WUHU21636XXSP,2013-02-23 13:06:00,
2013-02-23 08:07:00,31.6,25.5,30.06,ESE,112,3.8,3.8,78,0.00,,,0.00,WUHU21636XXSP,2013-02-23 13:07:00,
2013-02-23 08:09:00,31.6,25.5,30.06,SE,135,0.0,3.8,78,0.00,,,0.00,WUHU21636XXSP,2013-02-23 13:09:00,
2013-02-23 08:12:00,31.8,25.7,30.06,SE,135,0.0,3.8,78,0.00,,,0.00,WUHU21636XXSP,2013-02-23 13:12:00,
2013-02-23 08:14:00,31.8,25.7,30.06,SE,135,0.0,3.8,78,0.00,,,0.00,WUHU21636XXSP,2013-02-23 13:14:00,
2013-02-23 08:17:00,32.0,25.9,30.06,SE,135,0.0,0.0,78,0.00,,,0.00,WUHU21636XXSP,2013-02-23 13:17:00,
2013-02-23 08:19:00,32.0,25.9,30.06,SE,135,0.0,0.0,78,0.00,,,0.00,WUHU21636XXSP,2013-02-23 13:19:00,
2013-02-23 08:20:00,32.0,25.9,30.06,ESE,112,0.0,0.0,78,0.00,,,0.00,WUHU21636XXSP,2013-02-23 13:20:00,
2013-02-23 08:22:00,32.0,25.9,30.06,ESE,112,0.0,0.0,78,0.00,,,0.00,WUHU21636XXSP,2013-02-23 13:22:00,
2013-02-23 08:24:00,32.0,25.9,30.06,ESE,112,0.0,0.0,78,0.00,,,0.00,WUHU21636XXSP,2013-02-23 13:24:00,
2013-02-23 08:25:00,32.2,26.1,30.06,ESE,112,0.0,0.0,78,0.00,,,0.00,WUHU21636XXSP,2013-02-23 13:25:00,
2013-02-23 08:27:00,32.3,26.2,30.06,SE,135,0.0,0.0,78,0.00,,,0.00,WUHU21636XXSP,2013-02-23 13:27:00,
2013-02-23 08:29:00,32.5,26.4,30.06,ENE,67,0.0,0.0,78,0.00,,,0.00,WUHU21636XXSP,2013-02-23 13:29:00,
2013-02-23 08:30:00,32.5,26.4,30.06,ENE,67,0.0,0.0,78,0.00,,,0.00,WUHU21636XXSP,2013-02-23 13:30:00,
2013-02-23 08:32:00,32.3,26.2,30.06,ENE,67,0.0,0.0,78,0.00,,,0.00,WUHU21636XXSP,2013-02-23 13:32:00,
2013-02-23 08:34:00,32.5,26.4,30.06,ENE,67,0.0,0.0,78,0.00,,,0.00,WUHU21636XXSP,2013-02-23 13:34:00,
2013-02-23 08:36:00,32.5,26.4,30.06,ENE,67,0.0,0.0,78,0.00,,,0.00,WUHU21636XXSP,2013-02-23 13:36:00,
2013-02-23 08:37:00,32.5,26.4,30.06,ENE,67,0.0,0.0,78,0.00,,,0.00,WUHU21636XXSP,2013-02-23 13:37:00,
2013-02-23 08:39:00,32.5,26.4,30.06,ENE,67,0.0,0.0,78,0.00,,,0.00,WUHU21636XXSP,2013-02-23 13:39:00,
2013-02-23 08:41:00,32.5,26.1,30.06,ENE,67,0.0,0.0,77,0.00,,,0.00,WUHU21636XXSP,2013-02-23 13:41:00,
2013-02-23 08:42:00,32.5,26.1,30.06,ESE,112,0.0,0.0,77,0.00,,,0.00,WUHU21636XXSP,2013-02-23 13:42:00,
2013-02-23 08:44:00,32.5,26.1,30.06,SE,135,0.0,0.0,77,0.00,,,0.00,WUHU21636XXSP,2013-02-23 13:44:00,
2013-02-23 08:46:00,32.5,26.1,30.05,SE,135,2.0,2.0,77,0.00,,,0.00,WUHU21636XXSP,2013-02-23 13:46:00,
2013-02-23 08:47:00,32.5,26.1,30.05,SE,135,2.0,2.0,77,0.00,,,0.00,WUHU21636XXSP,2013-02-23 13:47:00,
2013-02-23 08:48:00,32.5,26.1,30.05,SE,135,2.0,2.0,77,0.00,,,0.00,WUHU21636XXSP,2013-02-23 13:48:00,
2013-02-23 08:49:00,32.5,26.1,30.05,ESE,112,0.0,2.0,77,0.00,,,0.00,WUHU21636XXSP,2013-02-23 13:49:00,
2013-02-23 08:51:00,32.5,26.1,30.05,ESE,112,0.0,2.0,77,0.00,,,0.00,WUHU21636XXSP,2013-02-23 13:51:00,
2013-02-23 08:52:00,32.5,26.1,30.05,ESE,112,0.0,2.0,77,0.00,,,0.00,WUHU21636XXSP,2013-02-23 13:52:00,
2013-02-23 08:53:00,32.5,26.4,30.05,East,90,0.0,2.0,78,0.00,,,0.00,WUHU21636XXSP,2013-02-23 13:53:00,
2013-02-23 08:54:00,32.5,26.4,30.05,East,90,0.0,2.0,78,0.00,,,0.00,WUHU21636XXSP,2013-02-23 13:54:00,
2013-02-23 08:56:00,32.5,26.1,30.05,East,90,0.0,2.0,77,0.00,,,0.00,WUHU21636XXSP,2013-02-23 13:56:00,
2013-02-23 08:57:00,32.5,26.1,30.05,East,90,0.0,2.0,77,0.00,,,0.00,WUHU21636XXSP,2013-02-23 13:57:00,
2013-02-23 08:58:00,32.5,26.1,30.05,East,90,0.0,0.0,77,0.00,,,0.00,WUHU21636XXSP,2013-02-23 13:58:00,
2013-02-23 08:59:00,32.5,26.1,30.04,SE,135,0.0,0.0,77,0.00,,,0.00,WUHU21636XXSP,2013-02-23 13:59:00,
2013-02-23 09:01:00,32.5,26.1,30.04,ESE,112,0.0,0.0,77,0.00,,,0.00,WUHU21636XXSP,2013-02-23 14:01:00,
2013-02-23 09:02:00,32.5,26.1,30.04,ESE,112,0.0,0.0,77,0.00,,,0.00,WUHU21636XXSP,2013-02-23 14:02:00,
2013-02-23 09:03:00,32.7,26.3,30.04,SE,135,0.0,0.0,77,0.00,,,0.00,WUHU21636XXSP,2013-02-23 14:03:00,
2013-02-23 09:05:00,32.7,26.3,30.04,SE,135,0.0,0.0,77,0.00,,,0.00,WUHU21636XXSP,2013-02-23 14:05:00,
2013-02-23 09:06:00,32.5,26.4,30.04,ESE,112,0.0,0.0,78,0.00,,,0.00,WUHU21636XXSP,2013-02-23 14:06:00,
2013-02-23 09:07:00,32.7,26.6,30.04,ESE,112,0.0,0.0,78,0.00,,,0.00,WUHU21636XXSP,2013-02-23 14:07:00,
2013-02-23 09:08:00,32.7,26.6,30.04,ESE,112,0.0,0.0,78,0.00,,,0.00,WUHU21636XXSP,2013-02-23 14:08:00,
2013-02-23 09:10:00,32.5,26.4,30.03,ESE,112,0.0,0.0,78,0.00,,,0.00,WUHU21636XXSP,2013-02-23 14:10:00,
2013-02-23 09:11:00,32.5,26.1,30.03,ESE,112,0.0,0.0,77,0.00,,,0.00,WUHU21636XXSP,2013-02-23 14:11:00,
2013-02-23 09:13:00,32.5,26.1,30.04,ESE,112,0.0,0.0,77,0.00,,,0.00,WUHU21636XXSP,2013-02-23 14:13:00,
2013-02-23 09:15:00,32.7,26.6,30.04,ESE,112,0.0,0.0,78,0.00,,,0.00,WUHU21636XXSP,2013-02-23 14:15:00,
2013-02-23 09:16:00,32.7,26.6,30.03,ESE,112,0.0,0.0,78,0.00,,,0.00,WUHU21636XXSP,2013-02-23 14:16:00,
2013-02-23 09:18:00,32.9,26.5,30.04,SE,135,0.0,0.0,77,0.00,,,0.00,WUHU21636XXSP,2013-02-23 14:18:00,
2013-02-23 09:19:00,32.9,26.5,30.04,SE,135,0.0,0.0,77,0.00,,,0.00,WUHU21636XXSP,2013-02-23 14:19:00,
2013-02-23 09:20:00,32.9,26.5,30.04,SE,135,0.0,0.0,77,0.00,,,0.00,WUHU21636XXSP,2013-02-23 14:20:00,
2013-02-23 09:21:00,32.7,26.6,30.03,SE,135,0.0,0.0,78,0.00,,,0.00,WUHU21636XXSP,2013-02-23 14:21:00,
2013-02-23 09:23:00,32.9,26.8,30.03,SE,135,0.0,0.0,78,0.00,,,0.00,WUHU21636XXSP,2013-02-23 14:23:00,
2013-02-23 09:24:00,32.9,26.8,30.03,SE,135,0.0,0.0,78,0.00,,,0.00,WUHU21636XXSP,2013-02-23 14:24:00,
2013-02-23 09:25:00,32.9,26.8,30.04,SE,135,0.0,0.0,78,0.00,,,0.00,WUHU21636XXSP,2013-02-23 14:25:00,
2013-02-23 09:27:00,32.9,26.5,30.03,SE,135,0.0,0.0,77,0.00,,,0.00,WUHU21636XXSP,2013-02-23 14:27:00,
2013-02-23 09:28:00,32.9,26.5,30.03,SE,135,0.0,0.0,77,0.00,,,0.00,WUHU21636XXSP,2013-02-23 14:28:00,
2013-02-23 09:29:00,33.1,26.7,30.03,SE,135,0.0,0.0,77,0.00,,,0.00,WUHU21636XXSP,2013-02-23 14:29:00,
2013-02-23 09:30:00,33.1,26.7,30.03,SE,135,0.0,0.0,77,0.00,,,0.00,WUHU21636XXSP,2013-02-23 14:30:00,
2013-02-23 09:32:00,33.2,26.8,30.04,SE,135,0.0,0.0,77,0.00,,,0.00,WUHU21636XXSP,2013-02-23 14:32:00,
2013-02-23 09:33:00,33.2,26.8,30.03,SE,135,0.0,0.0,77,0.00,,,0.00,WUHU21636XXSP,2013-02-23 14:33:00,
2013-02-23 09:34:00,33.2,26.8,30.03,ESE,112,0.0,0.0,77,0.00,,,0.00,WUHU21636XXSP,2013-02-23 14:34:00,
2013-02-23 09:35:00,33.2,26.8,30.03,ESE,112,0.0,0.0,77,0.00,,,0.00,WUHU21636XXSP,2013-02-23 14:35:00,
2013-02-23 09:37:00,33.2,26.8,30.03,ESE,112,0.0,0.0,77,0.00,,,0.00,WUHU21636XXSP,2013-02-23 14:37:00,
2013-02-23 09:38:00,33.4,27.0,30.04,ESE,112,0.0,0.0,77,0.00,,,0.00,WUHU21636XXSP,2013-02-23 14:38:00,
2013-02-23 09:39:00,33.4,27.0,30.04,ESE,112,0.0,0.0,77,0.00,,,0.00,WUHU21636XXSP,2013-02-23 14:39:00,
2013-02-23 09:40:00,33.4,27.0,30.04,ESE,112,0.0,0.0,77,0.00,,,0.00,WUHU21636XXSP,2013-02-23 14:40:00,
2013-02-23 09:43:00,33.4,27.0,30.03,ESE,112,0.0,0.0,77,0.00,,,0.00,WUHU21636XXSP,2013-02-23 14:43:00,
2013-02-23 09:44:00,33.4,27.0,30.04,ESE,112,0.0,0.0,77,0.00,,,0.00,WUHU21636XXSP,2013-02-23 14:44:00,
2013-02-23 09:45:00,33.4,27.0,30.03,ESE,112,0.0,0.0,77,0.00,,,0.00,WUHU21636XXSP,2013-02-23 14:45:00,
2013-02-23 09:48:00,33.4,27.0,30.03,ESE,112,0.0,0.0,77,0.00,,,0.00,WUHU21636XXSP,2013-02-23 14:48:00,
2013-02-23 09:49:00,33.4,27.0,30.03,ESE,112,0.0,0.0,77,0.00,,,0.00,WUHU21636XXSP,2013-02-23 14:49:00,
2013-02-23 09:50:00,33.4,27.0,30.03,ESE,112,0.0,0.0,77,0.00,,,0.00,WUHU21636XXSP,2013-02-23 14:50:00,
2013-02-23 09:53:00,33.4,27.0,30.03,ESE,112,0.0,0.0,77,0.00,,,0.00,WUHU21636XXSP,2013-02-23 14:53:00,
2013-02-23 09:54:00,33.4,27.0,30.03,ESE,112,0.0,0.0,77,0.00,,,0.00,WUHU21636XXSP,2013-02-23 14:54:00,
2013-02-23 09:55:00,33.4,27.0,30.03,ESE,112,0.0,0.0,77,0.00,,,0.00,WUHU21636XXSP,2013-02-23 14:55:00,
2013-02-23 09:58:00,33.4,27.0,30.03,ESE,112,0.0,0.0,77,0.00,,,0.00,WUHU21636XXSP,2013-02-23 14:58:00,
2013-02-23 09:59:00,33.2,26.8,30.03,ESE,112,0.0,0.0,77,0.00,,,0.00,WUHU21636XXSP,2013-02-23 14:59:00,
2013-02-23 10:00:00,33.2,26.8,30.03,ESE,112,0.0,0.0,77,0.00,,,0.00,WUHU21636XXSP,2013-02-23 15:00:00,
2013-02-23 10:03:00,33.2,26.8,30.04,SE,135,0.0,0.0,77,0.00,,,0.00,WUHU21636XXSP,2013-02-23 15:03:00,
2013-02-23 10:04:00,33.4,27.0,30.04,SE,135,0.0,0.0,77,0.00,,,0.00,WUHU21636XXSP,2013-02-23 15:04:00,
2013-02-23 10:06:00,33.4,27.0,30.04,SE,135,0.0,0.0,77,0.00,,,0.00,WUHU21636XXSP,2013-02-23 15:06:00,
2013-02-23 10:08:00,33.4,27.0,30.03,SE,135,0.0,0.0,77,0.00,,,0.00,WUHU21636XXSP,2013-02-23 15:08:00,
2013-02-23 10:10:00,33.4,27.0,30.03,ESE,112,0.0,0.0,77,0.00,,,0.00,WUHU21636XXSP,2013-02-23 15:10:00,
2013-02-23 10:11:00,33.4,27.0,30.03,ESE,112,0.0,0.0,77,0.00,,,0.00,WUHU21636XXSP,2013-02-23 15:11:00,
2013-02-23 10:13:00,33.2,26.8,30.03,ESE,112,0.0,0.0,77,0.00,,,0.00,WUHU21636XXSP,2013-02-23 15:13:00,
2013-02-23 10:15:00,33.4,27.0,30.03,ESE,112,0.0,0.0,77,0.00,,,0.00,WUHU21636XXSP,2013-02-23 15:15:00,
2013-02-23 10:16:00,33.4,27.0,30.03,ESE,112,0.0,0.0,77,0.00,,,0.00,WUHU21636XXSP,2013-02-23 15:16:00,
2013-02-23 10:19:00,33.4,27.0,30.03,SE,135,0.0,0.0,77,0.00,,,0.00,WUHU21636XXSP,2013-02-23 15:19:00,
2013-02-23 10:20:00,33.4,27.0,30.03,SE,135,0.0,0.0,77,0.00,,,0.00,WUHU21636XXSP,2013-02-23 15:20:00,
2013-02-23 10:21:00,33.2,26.8,30.02,SE,135,0.0,0.0,77,0.00,,,0.00,WUHU21636XXSP,2013-02-23 15:21:00,
2013-02-23 10:24:00,33.4,27.0,30.02,SE,135,0.0,0.0,77,0.00,,,0.00,WUHU21636XXSP,2013-02-23 15:24:00,
2013-02-23 10:26:00,33.4,27.0,30.03,ESE,112,0.0,0.0,77,0.00,,,0.00,WUHU21636XXSP,2013-02-23 15:26:00,
2013-02-23 10:29:00,33.4,27.0,30.02,SE,135,0.0,0.0,77,0.00,,,0.00,WUHU21636XXSP,2013-02-23 15:29:00,
2013-02-23 10:31:00,33.4,27.0,30.03,ESE,112,1.7,1.7,77,0.00,,,0.00,WUHU21636XXSP,2013-02-23 15:31:00,
2013-02-23 10:34:00,33.6,27.5,30.02,SE,135,0.0,1.7,78,0.00,,,0.00,WUHU21636XXSP,2013-02-23 15:34:00,
2013-02-23 10:36:00,33.6,27.5,30.02,ESE,112,0.0,1.7,78,0.00,,,0.00,WUHU21636XXSP,2013-02-23 15:36:00,
2013-02-23 10:39:00,33.4,27.3,30.01,SSW,202,4.9,4.9,78,0.00,,,0.00,WUHU21636XXSP,2013-02-23 15:39:00,
2013-02-23 10:41:00,33.6,27.5,30.01,ENE,67,0.6,4.9,78,0.00,,,0.00,WUHU21636XXSP,2013-02-23 15:41:00,
2013-02-23 10:44:00,33.8,27.7,30.01,ESE,112,3.8,4.9,78,0.00,,,0.00,WUHU21636XXSP,2013-02-23 15:44:00,
2013-02-23 10:46:00,33.8,27.7,30.01,ESE,112,3.8,4.9,78,0.00,,,0.00,WUHU21636XXSP,2013-02-23 15:46:00,
2013-02-23 10:49:00,33.6,27.5,30.00,ESE,112,0.0,3.8,78,0.00,,,0.00,WUHU21636XXSP,2013-02-23 15:49:00,
2013-02-23 10:51:00,33.6,27.5,30.01,ESE,112,0.0,3.8,78,0.00,,,0.00,WUHU21636XXSP,2013-02-23 15:51:00,
2013-02-23 10:54:00,33.4,27.3,30.00,SSE,157,0.0,3.8,78,0.00,,,0.00,WUHU21636XXSP,2013-02-23 15:54:00,
2013-02-23 10:55:00,33.4,27.3,30.00,SSE,157,0.0,3.8,78,0.00,,,0.00,WUHU21636XXSP,2013-02-23 15:55:00,
2013-02-23 10:56:00,33.4,27.6,30.00,SSE,157,0.0,1.5,79,0.00,,,0.00,WUHU21636XXSP,2013-02-23 15:56:00,
2013-02-23 11:00:00,33.6,27.8,30.00,SE,135,0.0,0.0,79,0.00,,,0.00,WUHU21636XXSP,2013-02-23 16:00:00,
2013-02-23 11:01:00,33.6,27.8,30.00,South,180,0.0,0.0,79,0.00,,,0.00,WUHU21636XXSP,2013-02-23 16:01:00,
2013-02-23 11:05:00,33.8,27.7,30.00,SE,135,0.0,0.0,78,0.00,,,0.00,WUHU21636XXSP,2013-02-23 16:05:00,
2013-02-23 11:06:00,34.0,27.9,30.00,SE,135,0.0,0.0,78,0.00,,,0.00,WUHU21636XXSP,2013-02-23 16:06:00,
2013-02-23 11:07:00,34.0,27.9,30.00,SE,135,0.0,0.0,78,0.00,,,0.00,WUHU21636XXSP,2013-02-23 16:07:00,
2013-02-23 11:10:00,34.0,27.9,29.99,ESE,112,0.0,0.0,78,0.00,,,0.00,WUHU21636XXSP,2013-02-23 16:10:00,
2013-02-23 11:11:00,34.0,27.9,29.99,ESE,112,0.0,0.0,78,0.00,,,0.00,WUHU21636XXSP,2013-02-23 16:11:00,
2013-02-23 11:12:00,34.0,27.9,29.99,ESE,112,0.0,0.0,78,0.00,,,0.00,WUHU21636XXSP,2013-02-23 16:12:00,
2013-02-23 11:15:00,34.1,28.0,29.99,ESE,112,0.0,0.0,78,0.00,,,0.00,WUHU21636XXSP,2013-02-23 16:15:00,
2013-02-23 11:16:00,34.3,28.2,29.98,SSE,157,0.0,0.0,78,0.00,,,0.00,WUHU21636XXSP,2013-02-23 16:16:00,
2013-02-23 11:17:00,34.3,28.2,29.98,SSE,157,0.0,0.0,78,0.00,,,0.00,WUHU21636XXSP,2013-02-23 16:17:00,
2013-02-23 11:20:00,34.3,28.2,29.99,SSE,157,0.0,0.0,78,0.00,,,0.00,WUHU21636XXSP,2013-02-23 16:20:00,
2013-02-23 11:21:00,34.5,28.4,29.98,South,180,0.0,0.0,78,0.00,,,0.00,WUHU21636XXSP,2013-02-23 16:21:00,
2013-02-23 11:22:00,34.5,28.4,29.98,South,180,0.0,0.0,78,0.00,,,0.00,WUHU21636XXSP,2013-02-23 16:22:00,
2013-02-23 11:25:00,34.7,28.6,29.98,South,180,0.0,0.0,78,0.02,,,0.03,WUHU21636XXSP,2013-02-23 16:25:00,
2013-02-23 11:27:00,34.7,28.6,29.99,South,180,0.0,0.0,78,0.02,,,0.03,WUHU21636XXSP,2013-02-23 16:27:00,
2013-02-23 11:30:00,34.7,28.6,29.98,ESE,112,0.0,0.0,78,0.02,,,0.03,WUHU21636XXSP,2013-02-23 16:30:00,
2013-02-23 11:32:00,34.9,28.8,29.98,ESE,112,0.0,0.0,78,0.02,,,0.03,WUHU21636XXSP,2013-02-23 16:32:00,
2013-02-23 11:35:00,35.0,28.9,29.98,SE,135,0.0,0.0,78,0.02,,,0.03,WUHU21636XXSP,2013-02-23 16:35:00,
2013-02-23 11:37:00,34.9,28.5,29.98,SE,135,0.0,0.0,77,0.02,,,0.03,WUHU21636XXSP,2013-02-23 16:37:00,
2013-02-23 11:40:00,35.0,28.6,29.98,South,180,0.0,0.0,77,0.02,,,0.03,WUHU21636XXSP,2013-02-23 16:40:00,
2013-02-23 11:42:00,35.0,28.6,29.98,South,180,0.0,0.0,77,0.02,,,0.03,WUHU21636XXSP,2013-02-23 16:42:00,
2013-02-23 11:45:00,35.0,28.2,29.98,SSW,202,0.0,0.0,76,0.02,,,0.03,WUHU21636XXSP,2013-02-23 16:45:00,
2013-02-23 11:47:00,35.0,28.2,29.98,SSW,202,0.0,0.0,76,0.02,,,0.03,WUHU21636XXSP,2013-02-23 16:47:00,
2013-02-23 11:48:00,35.0,28.2,29.98,SSW,202,0.0,0.0,76,0.02,,,0.03,WUHU21636XXSP,2013-02-23 16:48:00,
2013-02-23 11:50:00,35.0,28.2,29.98,SSW,202,0.0,0.0,76,0.02,,,0.03,WUHU21636XXSP,2013-02-23 16:50:00,
2013-02-23 11:52:00,35.2,28.7,29.98,SSW,202,0.0,0.0,77,0.02,,,0.03,WUHU21636XXSP,2013-02-23 16:52:00,
2013-02-23 11:53:00,35.2,28.7,29.98,SSW,202,0.0,0.0,77,0.02,,,0.03,WUHU21636XXSP,2013-02-23 16:53:00,
2013-02-23 11:55:00,35.2,28.7,29.98,South,180,0.0,0.0,77,0.02,,,0.03,WUHU21636XXSP,2013-02-23 16:55:00,
2013-02-23 11:57:00,35.2,28.7,29.98,ESE,112,0.0,0.0,77,0.02,,,0.03,WUHU21636XXSP,2013-02-23 16:57:00,
2013-02-23 11:58:00,35.2,28.7,29.98,ESE,112,0.0,0.0,77,0.02,,,0.03,WUHU21636XXSP,2013-02-23 16:58:00,
2013-02-23 12:00:00,35.2,28.7,29.97,ESE,112,0.0,0.0,77,0.02,,,0.03,WUHU21636XXSP,2013-02-23 17:00:00,
2013-02-23 12:02:00,35.2,28.7,29.98,ESE,112,0.0,0.0,77,0.02,,,0.03,WUHU21636XXSP,2013-02-23 17:02:00,
2013-02-23 12:03:00,35.6,28.8,29.97,ESE,112,0.0,0.0,76,0.02,,,0.03,WUHU21636XXSP,2013-02-23 17:03:00,
2013-02-23 12:05:00,35.6,28.8,29.98,ESE,112,0.0,0.0,76,0.02,,,0.03,WUHU21636XXSP,2013-02-23 17:05:00,
2013-02-23 12:06:00,35.6,28.8,29.98,ESE,112,0.0,0.0,76,0.02,,,0.03,WUHU21636XXSP,2013-02-23 17:06:00,
2013-02-23 12:07:00,35.6,28.8,29.97,ESE,112,0.0,0.0,76,0.02,,,0.03,WUHU21636XXSP,2013-02-23 17:07:00,
2013-02-23 12:09:00,35.4,28.6,29.97,ESE,112,0.0,0.0,76,0.02,,,0.03,WUHU21636XXSP,2013-02-23 17:09:00,
2013-02-23 12:11:00,35.2,28.4,29.98,ESE,112,0.0,0.0,76,0.02,,,0.03,WUHU21636XXSP,2013-02-23 17:11:00,
2013-02-23 12:13:00,35.4,28.9,29.97,ESE,112,0.0,0.0,77,0.02,,,0.03,WUHU21636XXSP,2013-02-23 17:13:00,
2013-02-23 12:14:00,35.4,28.9,29.97,ESE,112,0.0,0.0,77,0.02,,,0.03,WUHU21636XXSP,2013-02-23 17:14:00,
2013-02-23 12:16:00,35.4,28.9,29.97,ESE,112,0.0,0.0,77,0.02,,,0.03,WUHU21636XXSP,2013-02-23 17:16:00,
2013-02-23 12:18:00,35.2,28.7,29.97,ESE,112,0.0,0.0,77,0.02,,,0.03,WUHU21636XXSP,2013-02-23 17:18:00,
2013-02-23 12:19:00,35.6,29.1,29.97,ESE,112,0.0,0.0,77,0.02,,,0.03,WUHU21636XXSP,2013-02-23 17:19:00,
2013-02-23 12:21:00,35.6,29.1,29.97,SE,135,0.0,0.0,77,0.02,,,0.03,WUHU21636XXSP,2013-02-23 17:21:00,
2013-02-23 12:23:00,35.6,29.1,29.97,SE,135,0.0,0.0,77,0.02,,,0.03,WUHU21636XXSP,2013-02-23 17:23:00,
2013-02-23 12:24:00,35.6,29.1,29.97,SE,135,0.0,0.0,77,0.02,,,0.03,WUHU21636XXSP,2013-02-23 17:24:00,
2013-02-23 12:26:00,35.6,29.1,29.97,ESE,112,0.0,0.0,77,0.02,,,0.03,WUHU21636XXSP,2013-02-23 17:26:00,
2013-02-23 12:28:00,35.4,28.9,29.97,ESE,112,0.0,0.0,77,0.02,,,0.03,WUHU21636XXSP,2013-02-23 17:28:00,
2013-02-23 12:29:00,35.4,28.9,29.97,ESE,112,0.0,0.0,77,0.02,,,0.03,WUHU21636XXSP,2013-02-23 17:29:00,
2013-02-23 12:31:00,35.2,28.7,29.97,ESE,112,0.0,0.0,77,0.02,,,0.03,WUHU21636XXSP,2013-02-23 17:31:00,
2013-02-23 12:33:00,35.2,28.7,29.97,SE,135,0.0,0.0,77,0.02,,,0.03,WUHU21636XXSP,2013-02-23 17:33:00,
2013-02-23 12:34:00,35.2,28.4,29.97,SE,135,0.0,0.0,76,0.02,,,0.03,WUHU21636XXSP,2013-02-23 17:34:00,
2013-02-23 12:36:00,35.2,28.7,29.97,SE,135,0.0,0.0,77,0.02,,,0.03,WUHU21636XXSP,2013-02-23 17:36:00,
2013-02-23 12:38:00,35.0,28.6,29.97,ESE,112,0.0,0.0,77,0.02,,,0.03,WUHU21636XXSP,2013-02-23 17:38:00,
2013-02-23 12:39:00,35.0,28.6,29.97,ESE,112,0.0,0.0,77,0.02,,,0.03,WUHU21636XXSP,2013-02-23 17:39:00,
2013-02-23 12:41:00,35.0,28.6,29.97,SSE,157,0.0,0.0,77,0.02,,,0.03,WUHU21636XXSP,2013-02-23 17:41:00,
2013-02-23 12:43:00,35.0,28.6,29.97,SSE,157,0.0,0.0,77,0.02,,,0.03,WUHU21636XXSP,2013-02-23 17:43:00,
2013-02-23 12:44:00,35.0,28.6,29.97,SSE,157,0.0,0.0,77,0.02,,,0.03,WUHU21636XXSP,2013-02-23 17:44:00,
2013-02-23 12:46:00,35.0,28.6,29.97,SSE,157,0.0,0.0,77,0.02,,,0.03,WUHU21636XXSP,2013-02-23 17:46:00,
2013-02-23 12:48:00,35.0,28.6,29.97,SSE,157,0.0,0.0,77,0.02,,,0.03,WUHU21636XXSP,2013-02-23 17:48:00,
2013-02-23 12:49:00,35.0,28.6,29.97,ESE,112,0.0,0.0,77,0.02,,,0.03,WUHU21636XXSP,2013-02-23 17:49:00,
2013-02-23 12:51:00,35.0,28.6,29.98,ESE,112,0.0,0.0,77,0.02,,,0.03,WUHU21636XXSP,2013-02-23 17:51:00,
2013-02-23 12:52:00,35.0,28.6,29.98,ESE,112,0.0,0.0,77,0.02,,,0.03,WUHU21636XXSP,2013-02-23 17:52:00,
2013-02-23 12:53:00,35.0,28.6,29.98,ESE,112,0.0,0.0,77,0.02,,,0.03,WUHU21636XXSP,2013-02-23 17:53:00,
2013-02-23 12:54:00,35.0,28.6,29.97,ESE,112,0.0,0.0,77,0.02,,,0.03,WUHU21636XXSP,2013-02-23 17:54:00,
2013-02-23 12:56:00,35.0,28.6,29.97,ESE,112,0.0,0.0,77,0.02,,,0.03,WUHU21636XXSP,2013-02-23 17:56:00,
2013-02-23 12:57:00,35.0,28.6,29.97,ESE,112,0.0,0.0,77,0.02,,,0.03,WUHU21636XXSP,2013-02-23 17:57:00,
2013-02-23 12:58:00,34.9,28.5,29.98,ESE,112,0.0,0.0,77,0.02,,,0.03,WUHU21636XXSP,2013-02-23 17:58:00,
2013-02-23 13:00:00,35.0,28.6,29.97,ESE,112,0.0,0.0,77,0.00,,,0.03,WUHU21636XXSP,2013-02-23 18:00:00,
2013-02-23 13:01:00,35.0,28.6,29.98,ESE,112,0.0,0.0,77,0.00,,,0.03,WUHU21636XXSP,2013-02-23 18:01:00,
2013-02-23 13:02:00,35.0,28.9,29.97,ESE,112,0.0,0.0,78,0.00,,,0.03,WUHU21636XXSP,2013-02-23 18:02:00,
2013-02-23 13:04:00,35.0,28.9,29.98,ESE,112,0.0,0.0,78,0.00,,,0.03,WUHU21636XXSP,2013-02-23 18:04:00,
2013-02-23 13:05:00,35.0,28.9,29.98,ESE,112,0.0,0.0,78,0.00,,,0.03,WUHU21636XXSP,2013-02-23 18:05:00,
2013-02-23 13:07:00,35.0,28.9,29.98,ESE,112,0.0,0.0,78,0.00,,,0.03,WUHU21636XXSP,2013-02-23 18:07:00,
2013-02-23 13:09:00,35.0,28.9,29.97,ESE,112,0.0,0.0,78,0.00,,,0.03,WUHU21636XXSP,2013-02-23 18:09:00,
2013-02-23 13:10:00,35.0,28.9,29.97,ESE,112,0.0,0.0,78,0.00,,,0.03,WUHU21636XXSP,2013-02-23 18:10:00,
2013-02-23 13:12:00,35.0,28.9,29.97,ESE,112,0.0,0.0,78,0.00,,,0.03,WUHU21636XXSP,2013-02-23 18:12:00,
2013-02-23 13:14:00,35.0,28.9,29.97,SE,135,0.0,0.0,78,0.00,,,0.03,WUHU21636XXSP,2013-02-23 18:14:00,
2013-02-23 13:15:00,35.0,28.9,29.97,East,90,0.0,0.0,78,0.00,,,0.03,WUHU21636XXSP,2013-02-23 18:15:00,
2013-02-23 13:17:00,35.0,28.9,29.98,ESE,112,0.0,0.0,78,0.00,,,0.03,WUHU21636XXSP,2013-02-23 18:17:00,
2013-02-23 13:19:00,35.0,28.9,29.97,ESE,112,0.0,0.0,78,0.00,,,0.03,WUHU21636XXSP,2013-02-23 18:19:00,
2013-02-23 13:20:00,35.0,28.9,29.97,ESE,112,0.0,0.0,78,0.00,,,0.03,WUHU21636XXSP,2013-02-23 18:20:00,
2013-02-23 13:22:00,35.0,28.9,29.97,SE,135,0.0,0.0,78,0.00,,,0.03,WUHU21636XXSP,2013-02-23 18:22:00,
2013-02-23 13:24:00,35.0,28.9,29.97,SSE,157,1.7,1.7,78,0.00,,,0.03,WUHU21636XXSP,2013-02-23 18:24:00,
2013-02-23 13:25:00,35.0,28.9,29.97,SSE,157,1.7,1.7,78,0.00,,,0.03,WUHU21636XXSP,2013-02-23 18:25:00,
2013-02-23 13:27:00,35.0,28.9,29.97,SSE,157,0.0,1.7,78,0.00,,,0.03,WUHU21636XXSP,2013-02-23 18:27:00,
2013-02-23 13:28:00,35.0,28.9,29.97,SSE,157,0.0,1.7,78,0.00,,,0.03,WUHU21636XXSP,2013-02-23 18:28:00,
2013-02-23 13:30:00,35.0,28.9,29.96,SE,135,0.0,1.7,78,0.00,,,0.03,WUHU21636XXSP,2013-02-23 18:30:00,
2013-02-23 13:33:00,35.0,28.9,29.97,ESE,112,3.5,3.5,78,0.00,,,0.03,WUHU21636XXSP,2013-02-23 18:33:00,
2013-02-23 13:35:00,34.9,28.8,29.96,ESE,112,0.0,3.5,78,0.00,,,0.03,WUHU21636XXSP,2013-02-23 18:35:00,
2013-02-23 13:36:00,34.9,28.8,29.96,ESE,112,0.0,3.5,78,0.00,,,0.03,WUHU21636XXSP,2013-02-23 18:36:00,
2013-02-23 13:38:00,35.0,28.9,29.96,ESE,112,0.0,3.5,78,0.00,,,0.03,WUHU21636XXSP,2013-02-23 18:38:00,
2013-02-23 13:40:00,34.9,29.1,29.96,ESE,112,0.0,3.5,79,0.00,,,0.03,WUHU21636XXSP,2013-02-23 18:40:00,
2013-02-23 13:41:00,34.7,28.9,29.96,ESE,112,0.0,3.5,79,0.00,,,0.03,WUHU21636XXSP,2013-02-23 18:41:00,
2013-02-23 13:43:00,34.7,28.9,29.96,East,90,0.0,3.5,79,0.00,,,0.03,WUHU21636XXSP,2013-02-23 18:43:00,
2013-02-23 13:44:00,34.7,28.9,29.96,East,90,0.0,0.0,79,0.00,,,0.03,WUHU21636XXSP,2013-02-23 18:44:00,
2013-02-23 13:45:00,34.7,28.9,29.95,ESE,112,0.0,0.0,79,0.00,,,0.03,WUHU21636XXSP,2013-02-23 18:45:00,
2013-02-23 13:46:00,34.7,28.9,29.95,ESE,112,0.0,0.0,79,0.00,,,0.03,WUHU21636XXSP,2013-02-23 18:46:00,
2013-02-23 13:48:00,34.7,28.9,29.95,East,90,0.0,0.0,79,0.00,,,0.03,WUHU21636XXSP,2013-02-23 18:48:00,
2013-02-23 13:49:00,34.7,28.9,29.95,East,90,0.0,0.0,79,0.00,,,0.03,WUHU21636XXSP,2013-02-23 18:49:00,
2013-02-23 13:50:00,34.7,28.9,29.95,East,90,0.0,0.0,79,0.00,,,0.03,WUHU21636XXSP,2013-02-23 18:50:00,
2013-02-23 13:51:00,34.7,28.9,29.95,ESE,112,0.0,0.0,79,0.00,,,0.03,WUHU21636XXSP,2013-02-23 18:51:00,
2013-02-23 13:53:00,34.7,28.9,29.95,ESE,112,0.0,0.0,79,0.00,,,0.03,WUHU21636XXSP,2013-02-23 18:53:00,
2013-02-23 13:54:00,34.5,28.7,29.95,ESE,112,0.0,0.0,79,0.00,,,0.03,WUHU21636XXSP,2013-02-23 18:54:00,
2013-02-23 13:55:00,34.5,28.7,29.95,ESE,112,0.0,0.0,79,0.00,,,0.03,WUHU21636XXSP,2013-02-23 18:55:00,
2013-02-23 13:56:00,34.5,28.7,29.94,ESE,112,0.0,0.0,79,0.00,,,0.03,WUHU21636XXSP,2013-02-23 18:56:00,
2013-02-23 13:58:00,34.7,29.2,29.95,ESE,112,0.0,0.0,80,0.00,,,0.03,WUHU21636XXSP,2013-02-23 18:58:00,
2013-02-23 13:59:00,34.7,29.2,29.94,ESE,112,0.0,0.0,80,0.00,,,0.03,WUHU21636XXSP,2013-02-23 18:59:00,
2013-02-23 14:00:00,34.7,29.2,29.95,ESE,112,0.6,0.6,80,0.00,,,0.03,WUHU21636XXSP,2013-02-23 19:00:00,
2013-02-23 14:01:00,34.7,29.2,29.95,ESE,112,0.6,0.6,80,0.00,,,0.03,WUHU21636XXSP,2013-02-23 19:01:00,
2013-02-23 14:03:00,34.7,29.2,29.95,SE,135,0.0,0.6,80,0.00,,,0.03,WUHU21636XXSP,2013-02-23 19:03:00,
2013-02-23 14:04:00,34.7,29.2,29.95,SE,135,0.0,0.6,80,0.00,,,0.03,WUHU21636XXSP,2013-02-23 19:04:00,
2013-02-23 14:06:00,34.7,29.2,29.95,SE,135,0.0,0.6,80,0.00,,,0.03,WUHU21636XXSP,2013-02-23 19:06:00,
2013-02-23 14:08:00,35.0,29.5,29.95,SE,135,0.0,0.6,80,0.00,,,0.03,WUHU21636XXSP,2013-02-23 19:08:00,
2013-02-23 14:09:00,35.0,29.5,29.95,SE,135,0.0,0.6,80,0.00,,,0.03,WUHU21636XXSP,2013-02-23 19:09:00,
2013-02-23 14:11:00,35.0,29.5,29.94,SE,135,0.0,0.6,80,0.00,,,0.03,WUHU21636XXSP,2013-02-23 19:11:00,
2013-02-23 14:12:00,35.0,29.5,29.94,SE,135,0.0,0.0,80,0.00,,,0.03,WUHU21636XXSP,2013-02-23 19:12:00,
2013-02-23 14:13:00,35.2,29.4,29.94,ESE,112,0.0,0.0,79,0.00,,,0.03,WUHU21636XXSP,2013-02-23 19:13:00,
2013-02-23 14:15:00,35.2,29.1,29.93,SE,135,0.0,0.0,78,0.00,,,0.03,WUHU21636XXSP,2013-02-23 19:15:00,
2013-02-23 14:16:00,35.2,29.1,29.94,SE,135,0.0,0.0,78,0.00,,,0.03,WUHU21636XXSP,2013-02-23 19:16:00,
2013-02-23 14:17:00,35.2,29.1,29.94,SE,135,0.0,0.0,78,0.00,,,0.03,WUHU21636XXSP,2013-02-23 19:17:00,
2013-02-23 14:18:00,35.2,29.1,29.93,SE,135,0.0,0.0,78,0.00,,,0.03,WUHU21636XXSP,2013-02-23 19:18:00,
2013-02-23 14:20:00,35.4,29.2,29.93,SE,135,0.0,0.0,78,0.00,,,0.03,WUHU21636XXSP,2013-02-23 19:20:00,
2013-02-23 14:21:00,35.4,29.2,29.93,South,180,0.0,0.0,78,0.00,,,0.03,WUHU21636XXSP,2013-02-23 19:21:00,
2013-02-23 14:22:00,35.4,29.2,29.93,South,180,0.0,0.0,78,0.00,,,0.03,WUHU21636XXSP,2013-02-23 19:22:00,
2013-02-23 14:23:00,35.4,29.2,29.93,South,180,0.0,0.0,78,0.00,,,0.03,WUHU21636XXSP,2013-02-23 19:23:00,
2013-02-23 14:25:00,35.2,29.1,29.93,South,180,0.0,0.0,78,0.00,,,0.03,WUHU21636XXSP,2013-02-23 19:25:00,
2013-02-23 14:26:00,35.2,29.1,29.93,South,180,0.0,0.0,78,0.00,,,0.03,WUHU21636XXSP,2013-02-23 19:26:00,
2013-02-23 14:27:00,35.2,29.1,29.93,South,180,0.0,0.0,78,0.00,,,0.03,WUHU21636XXSP,2013-02-23 19:27:00,
2013-02-23 14:28:00,35.2,29.1,29.93,ENE,67,0.0,0.0,78,0.00,,,0.03,WUHU21636XXSP,2013-02-23 19:28:00,
2013-02-23 14:30:00,35.2,29.1,29.93,ENE,67,0.0,0.0,78,0.00,,,0.03,WUHU21636XXSP,2013-02-23 19:30:00,
2013-02-23 14:31:00,35.2,28.7,29.93,SE,135,0.0,0.0,77,0.00,,,0.03,WUHU21636XXSP,2013-02-23 19:31:00,
2013-02-23 14:32:00,35.2,28.7,29.93,SE,135,0.0,0.0,77,0.00,,,0.03,WUHU21636XXSP,2013-02-23 19:32:00,
2013-02-23 14:34:00,35.2,28.7,29.93,SE,135,0.0,0.0,77,0.00,,,0.03,WUHU21636XXSP,2013-02-23 19:34:00,
2013-02-23 14:35:00,35.2,28.7,29.93,ESE,112,0.0,0.0,77,0.00,,,0.03,WUHU21636XXSP,2013-02-23 19:35:00,
2013-02-23 14:37:00,35.2,28.7,29.93,ESE,112,0.0,0.0,77,0.00,,,0.03,WUHU21636XXSP,2013-02-23 19:37:00,
2013-02-23 14:38:00,35.2,28.7,29.93,ESE,112,0.0,0.0,77,0.00,,,0.03,WUHU21636XXSP,2013-02-23 19:38:00,
2013-02-23 14:39:00,35.2,28.7,29.93,SE,135,0.0,0.0,77,0.00,,,0.03,WUHU21636XXSP,2013-02-23 19:39:00,
2013-02-23 14:40:00,35.2,28.7,29.93,SE,135,0.0,0.0,77,0.00,,,0.03,WUHU21636XXSP,2013-02-23 19:40:00,
2013-02-23 14:42:00,35.2,28.7,29.93,East,90,0.0,0.0,77,0.00,,,0.03,WUHU21636XXSP,2013-02-23 19:42:00,
2013-02-23 14:43:00,35.2,28.7,29.93,East,90,0.0,0.0,77,0.00,,,0.03,WUHU21636XXSP,2013-02-23 19:43:00,
2013-02-23 14:44:00,35.2,28.7,29.93,ESE,112,0.0,0.0,77,0.00,,,0.03,WUHU21636XXSP,2013-02-23 19:44:00,
2013-02-23 14:45:00,35.2,29.1,29.93,East,90,0.0,0.0,78,0.00,,,0.03,WUHU21636XXSP,2013-02-23 19:45:00,
2013-02-23 14:47:00,35.2,29.1,29.93,SSE,157,0.0,0.0,78,0.00,,,0.03,WUHU21636XXSP,2013-02-23 19:47:00,
2013-02-23 14:49:00,35.2,29.1,29.93,SSE,157,0.0,0.0,78,0.00,,,0.03,WUHU21636XXSP,2013-02-23 19:49:00,
2013-02-23 14:50:00,35.2,29.1,29.93,SSE,157,0.0,0.0,78,0.00,,,0.03,WUHU21636XXSP,2013-02-23 19:50:00,
2013-02-23 14:52:00,35.2,29.1,29.93,ESE,112,0.0,0.0,78,0.00,,,0.03,WUHU21636XXSP,2013-02-23 19:52:00,
2013-02-23 14:54:00,35.2,29.1,29.93,SE,135,0.0,0.0,78,0.00,,,0.03,WUHU21636XXSP,2013-02-23 19:54:00,
2013-02-23 14:55:00,35.2,29.1,29.93,SE,135,0.0,0.0,78,0.00,,,0.03,WUHU21636XXSP,2013-02-23 19:55:00,
2013-02-23 14:58:00,35.2,29.1,29.93,SE,135,0.0,0.0,78,0.00,,,0.03,WUHU21636XXSP,2013-02-23 19:58:00,
2013-02-23 14:59:00,35.2,29.1,29.93,SE,135,0.0,0.0,78,0.00,,,0.03,WUHU21636XXSP,2013-02-23 19:59:00,
2013-02-23 15:00:00,35.6,29.4,29.93,SE,135,0.0,0.0,78,0.00,,,0.03,WUHU21636XXSP,2013-02-23 20:00:00,
2013-02-23 15:03:00,35.6,29.4,29.92,ESE,112,0.0,0.0,78,0.00,,,0.03,WUHU21636XXSP,2013-02-23 20:03:00,
2013-02-23 15:04:00,35.6,29.1,29.92,ESE,112,0.0,0.0,77,0.00,,,0.03,WUHU21636XXSP,2013-02-23 20:04:00,
2013-02-23 15:05:00,35.6,29.1,29.93,ESE,112,0.0,0.0,77,0.00,,,0.03,WUHU21636XXSP,2013-02-23 20:05:00,
2013-02-23 15:08:00,35.6,29.1,29.93,SE,135,0.0,0.0,77,0.00,,,0.03,WUHU21636XXSP,2013-02-23 20:08:00,
2013-02-23 15:09:00,35.6,29.1,29.93,SE,135,0.0,0.0,77,0.00,,,0.03,WUHU21636XXSP,2013-02-23 20:09:00,
2013-02-23 15:11:00,35.6,29.1,29.93,SE,135,0.0,0.0,77,0.00,,,0.03,WUHU21636XXSP,2013-02-23 20:11:00,
2013-02-23 15:13:00,35.6,29.1,29.92,SE,135,0.0,0.0,77,0.00,,,0.03,WUHU21636XXSP,2013-02-23 20:13:00,
2013-02-23 15:14:00,35.6,29.1,29.92,SE,135,0.0,0.0,77,0.00,,,0.03,WUHU21636XXSP,2013-02-23 20:14:00,
2013-02-23 15:15:00,35.6,29.1,29.92,SE,135,0.0,0.0,77,0.00,,,0.03,WUHU21636XXSP,2013-02-23 20:15:00,
2013-02-23 15:16:00,35.6,29.1,29.92,South,180,0.0,0.0,77,0.00,,,0.03,WUHU21636XXSP,2013-02-23 20:16:00,
2013-02-23 15:19:00,35.6,29.1,29.92,South,180,0.0,0.0,77,0.00,,,0.03,WUHU21636XXSP,2013-02-23 20:19:00,
2013-02-23 15:20:00,35.6,29.1,29.92,ESE,112,0.0,0.0,77,0.00,,,0.03,WUHU21636XXSP,2013-02-23 20:20:00,
2013-02-23 15:21:00,35.6,29.1,29.92,ESE,112,0.0,0.0,77,0.00,,,0.03,WUHU21636XXSP,2013-02-23 20:21:00,
2013-02-23 15:24:00,35.6,29.1,29.92,SE,135,0.0,3.8,77,0.00,,,0.03,WUHU21636XXSP,2013-02-23 20:24:00,
2013-02-23 15:25:00,35.6,29.1,29.92,SE,135,0.0,3.8,77,0.00,,,0.03,WUHU21636XXSP,2013-02-23 20:25:00,
2013-02-23 15:27:00,35.6,29.1,29.92,ESE,112,0.0,3.8,77,0.00,,,0.03,WUHU21636XXSP,2013-02-23 20:27:00,
2013-02-23 15:29:00,35.6,29.4,29.92,SSE,157,0.0,3.8,78,0.00,,,0.03,WUHU21636XXSP,2013-02-23 20:29:00,
2013-02-23 15:30:00,35.6,29.4,29.92,SSE,157,0.0,3.8,78,0.00,,,0.03,WUHU21636XXSP,2013-02-23 20:30:00,
2013-02-23 15:32:00,35.2,29.1,29.91,SE,135,0.0,3.8,78,0.00,,,0.03,WUHU21636XXSP,2013-02-23 20:32:00,
2013-02-23 15:34:00,35.2,29.1,29.92,SE,135,3.5,3.5,78,0.00,,,0.03,WUHU21636XXSP,2013-02-23 20:34:00,
2013-02-23 15:35:00,35.2,29.1,29.92,SSE,157,0.0,3.5,78,0.00,,,0.03,WUHU21636XXSP,2013-02-23 20:35:00,
2013-02-23 15:37:00,35.2,29.1,29.92,ESE,112,0.0,3.5,78,0.00,,,0.03,WUHU21636XXSP,2013-02-23 20:37:00,
2013-02-23 15:40:00,35.2,29.1,29.91,SE,135,0.0,3.5,78,0.00,,,0.03,WUHU21636XXSP,2013-02-23 20:40:00,
2013-02-23 15:42:00,35.2,29.1,29.92,South,180,0.0,3.5,78,0.00,,,0.03,WUHU21636XXSP,2013-02-23 20:42:00,
2013-02-23 15:45:00,35.2,29.1,29.91,SSE,157,0.0,0.0,78,0.00,,,0.03,WUHU21636XXSP,2013-02-23 20:45:00,
2013-02-23 15:46:00,35.2,29.1,29.91,SE,135,0.0,0.0,78,0.00,,,0.03,WUHU21636XXSP,2013-02-23 20:46:00,
2013-02-23 15:47:00,35.2,29.1,29.92,SE,135,0.0,0.0,78,0.00,,,0.03,WUHU21636XXSP,2013-02-23 20:47:00,
2013-02-23 15:50:00,35.2,29.1,29.91,SE,135,0.0,1.3,78,0.00,,,0.03,WUHU21636XXSP,2013-02-23 20:50:00,
2013-02-23 15:51:00,35.2,29.1,29.91,SE,135,0.0,1.3,78,0.00,,,0.03,WUHU21636XXSP,2013-02-23 20:51:00,
2013-02-23 15:52:00,35.2,29.1,29.91,East,90,0.0,1.3,78,0.00,,,0.03,WUHU21636XXSP,2013-02-23 20:52:00,
2013-02-23 15:55:00,35.2,29.1,29.91,East,90,0.0,1.3,78,0.00,,,0.03,WUHU21636XXSP,2013-02-23 20:55:00,
2013-02-23 15:56:00,35.2,29.1,29.91,East,90,0.0,1.3,78,0.00,,,0.03,WUHU21636XXSP,2013-02-23 20:56:00,
2013-02-23 15:57:00,35.2,29.1,29.91,South,180,0.0,1.3,78,0.00,,,0.03,WUHU21636XXSP,2013-02-23 20:57:00,
2013-02-23 16:00:00,35.2,29.1,29.91,ESE,112,0.0,0.0,78,0.00,,,0.03,WUHU21636XXSP,2013-02-23 21:00:00,
2013-02-23 16:01:00,35.2,29.1,29.91,ESE,112,0.0,0.0,78,0.00,,,0.03,WUHU21636XXSP,2013-02-23 21:01:00,
2013-02-23 16:02:00,35.2,29.1,29.91,ESE,112,0.0,0.0,78,0.00,,,0.03,WUHU21636XXSP,2013-02-23 21:02:00,
2013-02-23 16:05:00,35.2,29.1,29.90,ESE,112,0.0,0.0,78,0.00,,,0.03,WUHU21636XXSP,2013-02-23 21:05:00,
2013-02-23 16:06:00,35.2,29.1,29.90,ESE,112,0.0,0.0,78,0.00,,,0.03,WUHU21636XXSP,2013-02-23 21:06:00,
2013-02-23 16:07:00,35.2,29.1,29.90,ESE,112,0.0,0.0,78,0.00,,,0.03,WUHU21636XXSP,2013-02-23 21:07:00,
2013-02-23 16:11:00,35.2,29.1,29.90,ESE,112,0.0,0.0,78,0.00,,,0.03,WUHU21636XXSP,2013-02-23 21:11:00,
2013-02-23 16:12:00,35.2,29.1,29.90,ESE,112,0.0,0.0,78,0.00,,,0.03,WUHU21636XXSP,2013-02-23 21:12:00,
2013-02-23 16:16:00,35.2,29.1,29.90,SE,135,0.0,0.0,78,0.00,,,0.03,WUHU21636XXSP,2013-02-23 21:16:00,
2013-02-23 16:18:00,35.2,29.1,29.90,ESE,112,0.0,0.0,78,0.00,,,0.03,WUHU21636XXSP,2013-02-23 21:18:00,
2013-02-23 16:21:00,35.2,29.1,29.90,SE,135,0.0,0.0,78,0.00,,,0.03,WUHU21636XXSP,2013-02-23 21:21:00,
2013-02-23 16:22:00,35.2,29.1,29.90,SE,135,0.0,0.0,78,0.00,,,0.03,WUHU21636XXSP,2013-02-23 21:22:00,
2013-02-23 16:23:00,35.2,29.1,29.90,SE,135,0.0,0.0,78,0.00,,,0.03,WUHU21636XXSP,2013-02-23 21:23:00,
2013-02-23 16:26:00,35.2,29.1,29.90,ESE,112,0.0,0.0,78,0.00,,,0.03,WUHU21636XXSP,2013-02-23 21:26:00,
2013-02-23 16:27:00,35.2,29.1,29.90,ESE,112,0.0,0.0,78,0.00,,,0.03,WUHU21636XXSP,2013-02-23 21:27:00,
2013-02-23 16:28:00,35.2,29.1,29.90,ESE,112,0.0,0.0,78,0.00,,,0.03,WUHU21636XXSP,2013-02-23 21:28:00,
2013-02-23 16:31:00,35.2,28.7,29.90,SE,135,2.6,2.6,77,0.00,,,0.03,WUHU21636XXSP,2013-02-23 21:31:00,
2013-02-23 16:32:00,35.2,28.7,29.90,SE,135,2.6,2.6,77,0.00,,,0.03,WUHU21636XXSP,2013-02-23 21:32:00,
2013-02-23 16:33:00,35.2,28.7,29.90,ESE,112,0.0,2.6,77,0.00,,,0.03,WUHU21636XXSP,2013-02-23 21:33:00,
2013-02-23 16:36:00,35.2,28.7,29.90,NE,45,0.0,2.6,77,0.00,,,0.03,WUHU21636XXSP,2013-02-23 21:36:00,
2013-02-23 16:37:00,35.2,28.7,29.90,NE,45,0.0,2.6,77,0.00,,,0.03,WUHU21636XXSP,2013-02-23 21:37:00,
2013-02-23 16:38:00,35.2,28.7,29.89,SSE,157,0.0,2.6,77,0.00,,,0.03,WUHU21636XXSP,2013-02-23 21:38:00,
2013-02-23 16:42:00,35.2,28.7,29.90,SE,135,0.0,2.6,77,0.00,,,0.03,WUHU21636XXSP,2013-02-23 21:42:00,
2013-02-23 16:43:00,35.0,28.6,29.90,ESE,112,0.0,0.0,77,0.00,,,0.03,WUHU21636XXSP,2013-02-23 21:43:00,
2013-02-23 16:47:00,35.0,28.6,29.89,SSE,157,2.0,2.0,77,0.00,,,0.03,WUHU21636XXSP,2013-02-23 21:47:00,
2013-02-23 16:48:00,35.0,28.6,29.89,ESE,112,0.0,2.0,77,0.00,,,0.03,WUHU21636XXSP,2013-02-23 21:48:00,
2013-02-23 16:52:00,35.0,28.9,29.90,NNE,22,1.7,2.0,78,0.00,,,0.03,WUHU21636XXSP,2013-02-23 21:52:00,
2013-02-23 16:53:00,35.0,28.9,29.90,NNE,22,1.7,2.0,78,0.00,,,0.03,WUHU21636XXSP,2013-02-23 21:53:00,
2013-02-23 16:54:00,34.9,28.8,29.90,SE,135,0.0,2.0,78,0.00,,,0.03,WUHU21636XXSP,2013-02-23 21:54:00,
2013-02-23 16:57:00,34.9,28.8,29.89,SSE,157,0.0,2.0,78,0.00,,,0.03,WUHU21636XXSP,2013-02-23 21:57:00,
2013-02-23 16:58:00,34.9,28.8,29.89,SSE,157,0.0,1.7,78,0.00,,,0.03,WUHU21636XXSP,2013-02-23 21:58:00,
2013-02-23 16:59:00,34.7,28.6,29.90,SE,135,1.7,1.7,78,0.00,,,0.03,WUHU21636XXSP,2013-02-23 21:59:00,
2013-02-23 17:02:00,34.7,28.3,29.90,East,90,0.0,1.7,77,0.00,,,0.03,WUHU21636XXSP,2013-02-23 22:02:00,
2013-02-23 17:03:00,34.7,28.3,29.90,SE,135,5.5,6.9,77,0.00,,,0.03,WUHU21636XXSP,2013-02-23 22:03:00,
2013-02-23 17:04:00,34.7,28.6,29.89,ESE,112,5.3,8.9,78,0.00,,,0.03,WUHU21636XXSP,2013-02-23 22:04:00,
2013-02-23 17:08:00,34.7,28.6,29.89,ESE,112,0.0,8.9,78,0.00,,,0.03,WUHU21636XXSP,2013-02-23 22:08:00,
2013-02-23 17:10:00,34.7,28.6,29.89,NE,45,0.0,8.9,78,0.00,,,0.03,WUHU21636XXSP,2013-02-23 22:10:00,
2013-02-23 17:13:00,34.7,28.6,29.90,SSE,157,4.0,8.0,78,0.00,,,0.03,WUHU21636XXSP,2013-02-23 22:13:00,
2013-02-23 17:14:00,34.7,28.6,29.90,SSE,157,4.0,8.0,78,0.00,,,0.03,WUHU21636XXSP,2013-02-23 22:14:00,
2013-02-23 17:15:00,34.7,28.6,29.89,SSE,157,4.0,4.0,78,0.00,,,0.03,WUHU21636XXSP,2013-02-23 22:15:00,
2013-02-23 17:18:00,34.5,28.4,29.89,ESE,112,0.0,4.0,78,0.00,,,0.03,WUHU21636XXSP,2013-02-23 22:18:00,
2013-02-23 17:19:00,34.5,28.4,29.89,ESE,112,0.0,4.0,78,0.00,,,0.03,WUHU21636XXSP,2013-02-23 22:19:00,
2013-02-23 17:20:00,34.5,28.4,29.89,SE,135,8.0,8.5,78,0.00,,,0.03,WUHU21636XXSP,2013-02-23 22:20:00,
2013-02-23 17:24:00,34.3,28.2,29.88,SE,135,0.0,8.5,78,0.00,,,0.03,WUHU21636XXSP,2013-02-23 22:24:00,
2013-02-23 17:25:00,34.3,28.2,29.88,ESE,112,0.0,8.5,78,0.00,,,0.03,WUHU21636XXSP,2013-02-23 22:25:00,
2013-02-23 17:29:00,34.3,28.2,29.89,SE,135,0.0,8.5,78,0.00,,,0.03,WUHU21636XXSP,2013-02-23 22:29:00,
2013-02-23 17:30:00,34.3,28.2,29.89,SE,135,0.0,7.3,78,0.00,,,0.03,WUHU21636XXSP,2013-02-23 22:30:00,
2013-02-23 17:34:00,34.3,28.2,29.88,SE,135,0.0,2.4,78,0.00,,,0.03,WUHU21636XXSP,2013-02-23 22:34:00,
2013-02-23 17:35:00,34.3,28.2,29.89,SE,135,0.0,2.4,78,0.00,,,0.03,WUHU21636XXSP,2013-02-23 22:35:00,
2013-02-23 17:39:00,34.3,28.2,29.89,SE,135,0.0,2.4,78,0.00,,,0.03,WUHU21636XXSP,2013-02-23 22:39:00,
2013-02-23 17:40:00,34.3,28.2,29.89,SE,135,2.2,2.4,78,0.00,,,0.03,WUHU21636XXSP,2013-02-23 22:40:00,
2013-02-23 17:41:00,34.3,28.2,29.89,SE,135,2.2,2.4,78,0.00,,,0.03,WUHU21636XXSP,2013-02-23 22:41:00,
2013-02-23 17:44:00,34.3,28.2,29.89,SSE,157,0.0,2.2,78,0.00,,,0.03,WUHU21636XXSP,2013-02-23 22:44:00,
2013-02-23 17:45:00,34.3,28.2,29.89,South,180,0.0,2.2,78,0.00,,,0.03,WUHU21636XXSP,2013-02-23 22:45:00,
2013-02-23 17:46:00,34.3,28.2,29.89,South,180,0.0,2.2,78,0.00,,,0.03,WUHU21636XXSP,2013-02-23 22:46:00,
2013-02-23 17:49:00,34.3,28.2,29.88,ESE,112,0.0,2.6,78,0.00,,,0.03,WUHU21636XXSP,2013-02-23 22:49:00,
2013-02-23 17:50:00,34.3,28.2,29.88,ESE,112,0.0,2.6,78,0.00,,,0.03,WUHU21636XXSP,2013-02-23 22:50:00,
2013-02-23 17:51:00,34.3,28.2,29.88,ESE,112,0.0,2.6,78,0.00,,,0.03,WUHU21636XXSP,2013-02-23 22:51:00,
2013-02-23 17:54:00,34.3,28.2,29.89,SE,135,0.0,2.6,78,0.00,,,0.03,WUHU21636XXSP,2013-02-23 22:54:00,
2013-02-23 17:55:00,34.3,28.2,29.89,SE,135,0.0,2.6,78,0.00,,,0.03,WUHU21636XXSP,2013-02-23 22:55:00,
2013-02-23 17:56:00,34.3,28.2,29.88,SSW,202,0.0,2.6,78,0.00,,,0.03,WUHU21636XXSP,2013-02-23 22:56:00,
2013-02-23 17:59:00,34.1,28.3,29.88,ESE,112,0.0,0.0,79,0.00,,,0.03,WUHU21636XXSP,2013-02-23 22:59:00,
2013-02-23 18:00:00,34.1,28.3,29.88,ESE,112,0.0,0.0,79,0.00,,,0.03,WUHU21636XXSP,2013-02-23 23:00:00,
2013-02-23 18:01:00,34.1,28.3,29.88,ESE,112,0.0,0.0,79,0.00,,,0.03,WUHU21636XXSP,2013-02-23 23:01:00,
2013-02-23 18:02:00,34.1,28.3,29.88,East,90,0.0,0.0,79,0.00,,,0.03,WUHU21636XXSP,2013-02-23 23:02:00,
2013-02-23 18:05:00,34.1,28.3,29.88,SSE,157,1.1,1.1,79,0.00,,,0.03,WUHU21636XXSP,2013-02-23 23:05:00,
2013-02-23 18:06:00,34.1,28.3,29.89,ESE,112,0.0,1.1,79,0.00,,,0.03,WUHU21636XXSP,2013-02-23 23:06:00,
2013-02-23 18:07:00,34.1,28.3,29.89,ESE,112,0.0,1.1,79,0.00,,,0.03,WUHU21636XXSP,2013-02-23 23:07:00,
2013-02-23 18:10:00,34.1,28.3,29.88,SE,135,0.0,1.1,79,0.00,,,0.03,WUHU21636XXSP,2013-02-23 23:10:00,
2013-02-23 18:12:00,34.1,28.3,29.88,SE,135,0.0,1.1,79,0.00,,,0.03,WUHU21636XXSP,2013-02-23 23:12:00,
2013-02-23 18:15:00,34.1,28.3,29.87,ESE,112,0.0,2.9,79,0.00,,,0.03,WUHU21636XXSP,2013-02-23 23:15:00,
2013-02-23 18:17:00,34.1,28.3,29.88,SE,135,0.0,2.9,79,0.00,,,0.03,WUHU21636XXSP,2013-02-23 23:17:00,
2013-02-23 18:20:00,34.1,28.3,29.87,SE,135,0.0,2.9,79,0.00,,,0.03,WUHU21636XXSP,2013-02-23 23:20:00,
2013-02-23 18:22:00,34.1,28.3,29.87,SE,135,0.0,2.9,79,0.00,,,0.03,WUHU21636XXSP,2013-02-23 23:22:00,
2013-02-23 18:24:00,34.1,28.3,29.87,ESE,112,1.3,2.9,79,0.00,,,0.03,WUHU21636XXSP,2013-02-23 23:24:00,
2013-02-23 18:25:00,34.1,28.3,29.87,ESE,112,1.3,1.3,79,0.00,,,0.03,WUHU21636XXSP,2013-02-23 23:25:00,
2013-02-23 18:28:00,34.1,28.3,29.87,East,90,2.0,3.3,79,0.00,,,0.03,WUHU21636XXSP,2013-02-23 23:28:00,
2013-02-23 18:30:00,34.1,28.3,29.87,SE,135,0.0,3.3,79,0.00,,,0.03,WUHU21636XXSP,2013-02-23 23:30:00,
2013-02-23 18:33:00,34.1,28.3,29.87,South,180,0.0,3.3,79,0.00,,,0.03,WUHU21636XXSP,2013-02-23 23:33:00,
2013-02-23 18:35:00,34.1,28.3,29.87,SE,135,0.6,3.3,79,0.00,,,0.03,WUHU21636XXSP,2013-02-23 23:35:00,
2013-02-23 18:36:00,34.1,28.3,29.87,SE,135,0.6,3.3,79,0.00,,,0.03,WUHU21636XXSP,2013-02-23 23:36:00,
2013-02-23 18:38:00,34.1,28.3,29.86,SE,135,2.9,2.9,79,0.00,,,0.03,WUHU21636XXSP,2013-02-23 23:38:00,
2013-02-23 18:40:00,34.1,28.3,29.87,ESE,112,0.0,2.9,79,0.00,,,0.03,WUHU21636XXSP,2013-02-23 23:40:00,
2013-02-23 18:43:00,34.1,28.3,29.87,SE,135,2.2,6.7,79,0.00,,,0.03,WUHU21636XXSP,2013-02-23 23:43:00,
2013-02-23 18:45:00,34.1,28.3,29.88,SE,135,0.0,6.7,79,0.00,,,0.03,WUHU21636XXSP,2013-02-23 23:45:00,
2013-02-23 18:46:00,34.1,28.3,29.88,SE,135,0.0,6.7,79,0.00,,,0.03,WUHU21636XXSP,2013-02-23 23:46:00,
2013-02-23 18:48:00,34.1,28.3,29.87,SE,135,4.4,6.7,79,0.00,,,0.03,WUHU21636XXSP,2013-02-23 23:48:00,
2013-02-23 18:50:00,34.1,28.3,29.87,ESE,112,0.0,6.7,79,0.00,,,0.03,WUHU21636XXSP,2013-02-23 23:50:00,
2013-02-23 18:51:00,34.1,28.3,29.87,ESE,112,0.0,6.7,79,0.00,,,0.03,WUHU21636XXSP,2013-02-23 23:51:00,
2013-02-23 18:54:00,34.1,28.3,29.87,NE,45,2.4,6.9,79,0.00,,,0.03,WUHU21636XXSP,2013-02-23 23:54:00,
2013-02-23 18:55:00,34.1,28.3,29.87,ESE,112,4.9,6.9,79,0.00,,,0.03,WUHU21636XXSP,2013-02-23 23:55:00,
2013-02-23 18:56:00,34.1,28.3,29.87,ESE,112,4.9,6.9,79,0.00,,,0.03,WUHU21636XXSP,2013-02-23 23:56:00,
2013-02-23 18:59:00,34.1,28.6,29.87,SE,135,0.0,6.9,80,0.00,,,0.03,WUHU21636XXSP,2013-02-23 23:59:00,
2013-02-23 19:00:00,34.1,28.3,29.87,ESE,112,0.0,6.9,79,0.00,,,0.03,WUHU21636XXSP,2013-02-24 00:00:00,
2013-02-23 19:01:00,34.1,28.6,29.87,ESE,112,1.1,6.9,80,0.00,,,0.03,WUHU21636XXSP,2013-02-24 00:01:00,
2013-02-23 19:04:00,34.1,28.6,29.86,SE,135,0.2,7.3,80,0.00,,,0.03,WUHU21636XXSP,2013-02-24 00:04:00,
2013-02-23 19:05:00,34.1,28.6,29.86,SE,135,0.2,7.3,80,0.00,,,0.03,WUHU21636XXSP,2013-02-24 00:05:00,
2013-02-23 19:06:00,34.1,28.3,29.87,SE,135,3.5,7.3,79,0.00,,,0.03,WUHU21636XXSP,2013-02-24 00:06:00,
2013-02-23 19:09:00,34.1,28.6,29.87,SE,135,0.0,7.3,80,0.00,,,0.03,WUHU21636XXSP,2013-02-24 00:09:00,
2013-02-23 19:11:00,34.1,28.6,29.86,ESE,112,2.2,7.3,80,0.00,,,0.03,WUHU21636XXSP,2013-02-24 00:11:00,
2013-02-23 19:14:00,34.1,28.6,29.86,SSE,157,0.0,3.5,80,0.00,,,0.03,WUHU21636XXSP,2013-02-24 00:14:00,
2013-02-23 19:16:00,34.1,28.6,29.86,ESE,112,0.0,3.5,80,0.00,,,0.03,WUHU21636XXSP,2013-02-24 00:16:00,
2013-02-23 19:17:00,34.1,28.6,29.86,ESE,112,0.0,3.5,80,0.00,,,0.03,WUHU21636XXSP,2013-02-24 00:17:00,
2013-02-23 19:19:00,34.1,28.6,29.86,ESE,112,0.0,2.2,80,0.00,,,0.03,WUHU21636XXSP,2013-02-24 00:19:00,
2013-02-23 19:21:00,34.1,28.6,29.86,ESE,112,0.0,2.2,80,0.00,,,0.03,WUHU21636XXSP,2013-02-24 00:21:00,
2013-02-23 19:22:00,34.1,28.6,29.86,ESE,112,0.0,0.0,80,0.00,,,0.03,WUHU21636XXSP,2013-02-24 00:22:00,
2013-02-23 19:24:00,34.0,28.5,29.86,SSE,157,0.0,0.0,80,0.00,,,0.03,WUHU21636XXSP,2013-02-24 00:24:00,
2013-02-23 19:26:00,34.0,28.5,29.86,SE,135,0.0,0.0,80,0.00,,,0.03,WUHU21636XXSP,2013-02-24 00:26:00,
2013-02-23 19:27:00,34.0,28.5,29.86,SE,135,0.0,0.0,80,0.00,,,0.03,WUHU21636XXSP,2013-02-24 00:27:00,
2013-02-23 19:29:00,34.1,28.6,29.86,ESE,112,0.0,0.0,80,0.00,,,0.03,WUHU21636XXSP,2013-02-24 00:29:00,
2013-02-23 19:31:00,34.1,28.9,29.86,SE,135,1.5,1.5,81,0.00,,,0.03,WUHU21636XXSP,2013-02-24 00:31:00,
2013-02-23 19:32:00,34.1,28.9,29.86,South,180,3.3,3.3,81,0.00,,,0.03,WUHU21636XXSP,2013-02-24 00:32:00,
2013-02-23 19:34:00,34.1,28.9,29.86,SE,135,3.1,3.3,81,0.00,,,0.03,WUHU21636XXSP,2013-02-24 00:34:00,
2013-02-23 19:36:00,34.1,28.9,29.86,SE,135,0.0,3.3,81,0.00,,,0.03,WUHU21636XXSP,2013-02-24 00:36:00,
2013-02-23 19:37:00,34.1,28.9,29.86,SE,135,0.0,3.3,81,0.00,,,0.03,WUHU21636XXSP,2013-02-24 00:37:00,
2013-02-23 19:39:00,34.1,28.9,29.86,SE,135,0.0,3.3,81,0.00,,,0.03,WUHU21636XXSP,2013-02-24 00:39:00,
2013-02-23 19:41:00,34.1,28.9,29.86,SE,135,0.0,3.3,81,0.00,,,0.03,WUHU21636XXSP,2013-02-24 00:41:00,
2013-02-23 19:42:00,34.1,28.9,29.86,SE,135,0.0,3.3,81,0.00,,,0.03,WUHU21636XXSP,2013-02-24 00:42:00,
2013-02-23 19:43:00,34.1,28.9,29.86,SSE,157,0.0,3.3,81,0.00,,,0.03,WUHU21636XXSP,2013-02-24 00:43:00,
2013-02-23 19:45:00,34.1,28.9,29.86,SE,135,0.0,3.1,81,0.00,,,0.03,WUHU21636XXSP,2013-02-24 00:45:00,
2013-02-23 19:46:00,34.1,28.9,29.86,SE,135,0.0,0.0,81,0.00,,,0.03,WUHU21636XXSP,2013-02-24 00:46:00,
2013-02-23 19:47:00,34.3,29.1,29.86,ESE,112,2.0,2.0,81,0.00,,,0.03,WUHU21636XXSP,2013-02-24 00:47:00,
2013-02-23 19:48:00,34.3,29.1,29.86,ESE,112,2.0,2.0,81,0.00,,,0.03,WUHU21636XXSP,2013-02-24 00:48:00,
2013-02-23 19:50:00,34.3,28.8,29.86,SE,135,1.1,2.0,80,0.00,,,0.03,WUHU21636XXSP,2013-02-24 00:50:00,
2013-02-23 19:52:00,34.3,28.8,29.86,SE,135,0.0,2.0,80,0.00,,,0.03,WUHU21636XXSP,2013-02-24 00:52:00,
2013-02-23 19:53:00,34.3,28.8,29.86,SE,135,0.0,2.0,80,0.00,,,0.03,WUHU21636XXSP,2013-02-24 00:53:00,
2013-02-23 19:55:00,34.3,28.8,29.87,SE,135,0.0,2.0,80,0.00,,,0.03,WUHU21636XXSP,2013-02-24 00:55:00,
2013-02-23 19:57:00,34.1,28.6,29.87,SSE,157,0.0,2.0,80,0.00,,,0.03,WUHU21636XXSP,2013-02-24 00:57:00,
2013-02-23 19:58:00,34.1,28.9,29.87,South,180,1.7,2.0,81,0.00,,,0.03,WUHU21636XXSP,2013-02-24 00:58:00,
2013-02-23 20:00:00,34.1,28.9,29.87,SE,135,0.0,1.7,81,0.00,,,0.03,WUHU21636XXSP,2013-02-24 01:00:00,
2013-02-23 20:02:00,34.3,29.1,29.86,SE,135,1.7,1.7,81,0.00,,,0.03,WUHU21636XXSP,2013-02-24 01:02:00,
2013-02-23 20:03:00,34.3,29.1,29.87,SE,135,1.7,1.7,81,0.00,,,0.03,WUHU21636XXSP,2013-02-24 01:03:00,
2013-02-23 20:05:00,34.1,28.9,29.87,NNE,22,0.0,1.7,81,0.00,,,0.03,WUHU21636XXSP,2013-02-24 01:05:00,
2013-02-23 20:08:00,34.1,28.9,29.87,SE,135,0.0,1.7,81,0.00,,,0.03,WUHU21636XXSP,2013-02-24 01:08:00,
2013-02-23 20:09:00,34.1,28.9,29.87,SE,135,0.0,1.7,81,0.00,,,0.03,WUHU21636XXSP,2013-02-24 01:09:00,
2013-02-23 20:10:00,34.1,28.9,29.87,SE,135,0.0,1.7,81,0.00,,,0.03,WUHU21636XXSP,2013-02-24 01:10:00,
2013-02-23 20:13:00,34.1,28.9,29.87,SE,135,0.0,1.7,81,0.00,,,0.03,WUHU21636XXSP,2013-02-24 01:13:00,
2013-02-23 20:14:00,34.1,28.9,29.86,SE,135,0.0,1.7,81,0.00,,,0.03,WUHU21636XXSP,2013-02-24 01:14:00,
2013-02-23 20:16:00,34.1,28.9,29.86,SE,135,0.0,1.7,81,0.00,,,0.03,WUHU21636XXSP,2013-02-24 01:16:00,
2013-02-23 20:18:00,34.1,28.9,29.86,SE,135,0.0,0.0,81,0.00,,,0.03,WUHU21636XXSP,2013-02-24 01:18:00,
2013-02-23 20:19:00,34.1,28.9,29.86,SE,135,1.1,1.1,81,0.00,,,0.03,WUHU21636XXSP,2013-02-24 01:19:00,
2013-02-23 20:21:00,34.1,28.9,29.86,SE,135,0.0,1.1,81,0.00,,,0.03,WUHU21636XXSP,2013-02-24 01:21:00,
2013-02-23 20:23:00,34.1,28.9,29.86,SE,135,3.3,3.3,81,0.00,,,0.03,WUHU21636XXSP,2013-02-24 01:23:00,
2013-02-23 20:24:00,34.1,28.9,29.86,SE,135,3.3,3.3,81,0.00,,,0.03,WUHU21636XXSP,2013-02-24 01:24:00,
2013-02-23 20:26:00,34.1,28.9,29.86,SE,135,0.6,3.3,81,0.00,,,0.03,WUHU21636XXSP,2013-02-24 01:26:00,
2013-02-23 20:28:00,34.0,28.8,29.86,SE,135,1.3,3.3,81,0.00,,,0.03,WUHU21636XXSP,2013-02-24 01:28:00,
2013-02-23 20:29:00,34.0,28.8,29.86,SE,135,1.3,3.3,81,0.00,,,0.03,WUHU21636XXSP,2013-02-24 01:29:00,
2013-02-23 20:30:00,34.0,28.8,29.86,SE,135,0.0,3.3,81,0.00,,,0.03,WUHU21636XXSP,2013-02-24 01:30:00,
2013-02-23 20:31:00,34.0,28.8,29.86,SE,135,0.0,3.3,81,0.00,,,0.03,WUHU21636XXSP,2013-02-24 01:31:00,
2013-02-23 20:34:00,34.0,29.1,29.86,SW,225,0.0,3.3,82,0.00,,,0.03,WUHU21636XXSP,2013-02-24 01:34:00,
2013-02-23 20:35:00,33.8,28.9,29.86,SE,135,2.9,3.3,82,0.00,,,0.03,WUHU21636XXSP,2013-02-24 01:35:00,
2013-02-23 20:36:00,33.8,28.9,29.86,SE,135,0.0,2.9,82,0.00,,,0.03,WUHU21636XXSP,2013-02-24 01:36:00,
2013-02-23 20:39:00,33.8,29.2,29.86,SE,135,0.0,2.9,83,0.00,,,0.03,WUHU21636XXSP,2013-02-24 01:39:00,
2013-02-23 20:40:00,33.8,29.2,29.85,SE,135,0.0,2.9,83,0.00,,,0.03,WUHU21636XXSP,2013-02-24 01:40:00,
2013-02-23 20:42:00,33.8,29.2,29.86,SE,135,2.2,2.9,83,0.00,,,0.03,WUHU21636XXSP,2013-02-24 01:42:00,
2013-02-23 20:44:00,33.8,29.2,29.86,SE,135,0.0,2.9,83,0.00,,,0.03,WUHU21636XXSP,2013-02-24 01:44:00,
2013-02-23 20:45:00,33.8,29.2,29.86,SE,135,0.0,2.9,83,0.00,,,0.03,WUHU21636XXSP,2013-02-24 01:45:00,
2013-02-23 20:47:00,33.6,29.0,29.86,SE,135,0.8,2.2,83,0.00,,,0.03,WUHU21636XXSP,2013-02-24 01:47:00,
2013-02-23 20:49:00,33.6,29.0,29.86,SE,135,0.0,2.2,83,0.00,,,0.03,WUHU21636XXSP,2013-02-24 01:49:00,
2013-02-23 20:50:00,33.6,29.0,29.86,SE,135,0.0,2.2,83,0.00,,,0.03,WUHU21636XXSP,2013-02-24 01:50:00,
2013-02-23 20:52:00,33.6,29.0,29.86,SE,135,0.0,0.8,83,0.00,,,0.03,WUHU21636XXSP,2013-02-24 01:52:00,
2013-02-23 20:54:00,33.4,28.8,29.86,ESE,112,2.6,2.6,83,0.00,,,0.03,WUHU21636XXSP,2013-02-24 01:54:00,
2013-02-23 20:55:00,33.4,28.8,29.86,ESE,112,2.6,2.6,83,0.00,,,0.03,WUHU21636XXSP,2013-02-24 01:55:00,
2013-02-23 20:57:00,33.4,28.8,29.86,ESE,112,0.0,2.6,83,0.00,,,0.03,WUHU21636XXSP,2013-02-24 01:57:00,
2013-02-23 20:59:00,33.4,28.8,29.86,ESE,112,0.0,2.6,83,0.00,,,0.03,WUHU21636XXSP,2013-02-24 01:59:00,
2013-02-23 21:00:00,33.4,28.8,29.86,ESE,112,0.0,2.6,83,0.00,,,0.03,WUHU21636XXSP,2013-02-24 02:00:00,
2013-02-23 21:02:00,33.4,28.8,29.86,South,180,0.0,2.6,83,0.00,,,0.03,WUHU21636XXSP,2013-02-24 02:02:00,
2013-02-23 21:04:00,33.4,28.8,29.87,South,180,0.0,2.6,83,0.00,,,0.03,WUHU21636XXSP,2013-02-24 02:04:00,
2013-02-23 21:05:00,33.4,28.8,29.87,South,180,0.0,2.6,83,0.00,,,0.03,WUHU21636XXSP,2013-02-24 02:05:00,
2013-02-23 21:08:00,33.4,28.8,29.86,South,180,0.0,0.0,83,0.00,,,0.03,WUHU21636XXSP,2013-02-24 02:08:00,
2013-02-23 21:10:00,33.2,28.6,29.86,South,180,0.0,0.0,83,0.00,,,0.03,WUHU21636XXSP,2013-02-24 02:10:00,
2013-02-23 21:11:00,33.2,28.6,29.86,South,180,0.0,0.0,83,0.00,,,0.03,WUHU21636XXSP,2013-02-24 02:11:00,
2013-02-23 21:13:00,33.2,28.6,29.86,South,180,0.0,0.0,83,0.00,,,0.03,WUHU21636XXSP,2013-02-24 02:13:00,
2013-02-23 21:15:00,33.2,28.6,29.86,South,180,0.0,0.0,83,0.00,,,0.03,WUHU21636XXSP,2013-02-24 02:15:00,
2013-02-23 21:16:00,33.2,28.9,29.86,South,180,0.0,0.0,84,0.00,,,0.03,WUHU21636XXSP,2013-02-24 02:16:00,
2013-02-23 21:18:00,33.2,28.9,29.85,South,180,0.0,0.0,84,0.00,,,0.03,WUHU21636XXSP,2013-02-24 02:18:00,
2013-02-23 21:20:00,33.2,28.9,29.85,South,180,0.0,0.0,84,0.00,,,0.03,WUHU21636XXSP,2013-02-24 02:20:00,
2013-02-23 21:21:00,33.2,28.9,29.85,South,180,0.0,0.0,84,0.00,,,0.03,WUHU21636XXSP,2013-02-24 02:21:00,
2013-02-23 21:23:00,33.2,28.9,29.85,SE,135,0.0,0.0,84,0.00,,,0.03,WUHU21636XXSP,2013-02-24 02:23:00,
2013-02-23 21:25:00,33.2,28.9,29.85,SE,135,0.0,0.0,84,0.00,,,0.03,WUHU21636XXSP,2013-02-24 02:25:00,
2013-02-23 21:26:00,33.2,28.9,29.85,SE,135,0.0,0.0,84,0.00,,,0.03,WUHU21636XXSP,2013-02-24 02:26:00,
2013-02-23 21:28:00,33.1,29.1,29.85,SE,135,0.0,0.0,85,0.00,,,0.03,WUHU21636XXSP,2013-02-24 02:28:00,
2013-02-23 21:30:00,32.9,28.9,29.85,SE,135,0.0,0.0,85,0.00,,,0.03,WUHU21636XXSP,2013-02-24 02:30:00,
2013-02-23 21:31:00,32.9,28.9,29.85,SE,135,0.0,0.0,85,0.00,,,0.03,WUHU21636XXSP,2013-02-24 02:31:00,
2013-02-23 21:33:00,33.1,29.1,29.85,SE,135,0.0,0.0,85,0.00,,,0.03,WUHU21636XXSP,2013-02-24 02:33:00,
2013-02-23 21:35:00,33.1,29.1,29.84,SE,135,0.0,0.0,85,0.00,,,0.03,WUHU21636XXSP,2013-02-24 02:35:00,
2013-02-23 21:36:00,33.1,29.1,29.84,SE,135,0.0,0.0,85,0.00,,,0.03,WUHU21636XXSP,2013-02-24 02:36:00,
2013-02-23 21:38:00,33.1,29.1,29.84,SE,135,0.0,0.0,85,0.00,,,0.03,WUHU21636XXSP,2013-02-24 02:38:00,
2013-02-23 21:40:00,33.1,29.1,29.84,SE,135,0.0,0.0,85,0.00,,,0.03,WUHU21636XXSP,2013-02-24 02:40:00,
2013-02-23 21:41:00,33.1,29.1,29.84,SE,135,0.0,0.0,85,0.00,,,0.03,WUHU21636XXSP,2013-02-24 02:41:00,
2013-02-23 21:44:00,32.9,28.9,29.84,SE,135,0.0,0.0,85,0.00,,,0.03,WUHU21636XXSP,2013-02-24 02:44:00,
2013-02-23 21:46:00,33.1,29.1,29.84,SE,135,0.0,0.0,85,0.00,,,0.03,WUHU21636XXSP,2013-02-24 02:46:00,
2013-02-23 21:49:00,32.9,28.9,29.83,SE,135,0.0,0.0,85,0.00,,,0.03,WUHU21636XXSP,2013-02-24 02:49:00,
2013-02-23 21:51:00,33.1,29.1,29.84,SE,135,0.0,0.0,85,0.00,,,0.03,WUHU21636XXSP,2013-02-24 02:51:00,
2013-02-23 21:54:00,33.1,29.1,29.83,SE,135,0.0,0.0,85,0.00,,,0.03,WUHU21636XXSP,2013-02-24 02:54:00,
2013-02-23 21:56:00,33.1,29.1,29.83,SE,135,0.0,0.0,85,0.00,,,0.03,WUHU21636XXSP,2013-02-24 02:56:00,
2013-02-23 21:59:00,32.9,28.9,29.83,SE,135,0.0,0.0,85,0.00,,,0.03,WUHU21636XXSP,2013-02-24 02:59:00,
2013-02-23 22:01:00,32.9,28.9,29.83,SE,135,0.0,0.0,85,0.00,,,0.03,WUHU21636XXSP,2013-02-24 03:01:00,
2013-02-23 22:02:00,32.9,28.9,29.83,SE,135,0.0,0.0,85,0.00,,,0.03,WUHU21636XXSP,2013-02-24 03:02:00,
2013-02-23 22:04:00,32.9,28.9,29.83,SE,135,0.0,0.0,85,0.00,,,0.03,WUHU21636XXSP,2013-02-24 03:04:00,
2013-02-23 22:06:00,32.9,28.9,29.83,SE,135,0.0,0.0,85,0.00,,,0.03,WUHU21636XXSP,2013-02-24 03:06:00,
2013-02-23 22:07:00,32.9,28.9,29.83,SE,135,0.0,0.0,85,0.00,,,0.03,WUHU21636XXSP,2013-02-24 03:07:00,
2013-02-23 22:09:00,32.7,28.7,29.82,SE,135,0.0,0.0,85,0.00,,,0.03,WUHU21636XXSP,2013-02-24 03:09:00,
2013-02-23 22:11:00,32.5,28.5,29.82,SE,135,0.0,0.0,85,0.00,,,0.03,WUHU21636XXSP,2013-02-24 03:11:00,
2013-02-23 22:12:00,32.5,28.5,29.82,SE,135,0.0,0.0,85,0.00,,,0.03,WUHU21636XXSP,2013-02-24 03:12:00,
2013-02-23 22:14:00,32.5,28.5,29.82,SE,135,0.0,0.0,85,0.00,,,0.03,WUHU21636XXSP,2013-02-24 03:14:00,
2013-02-23 22:16:00,32.5,28.5,29.82,SE,135,0.0,0.0,85,0.00,,,0.03,WUHU21636XXSP,2013-02-24 03:16:00,
2013-02-23 22:17:00,32.5,28.5,29.82,SE,135,0.0,0.0,85,0.00,,,0.03,WUHU21636XXSP,2013-02-24 03:17:00,
2013-02-23 22:20:00,32.5,28.5,29.82,SE,135,0.0,0.0,85,0.00,,,0.03,WUHU21636XXSP,2013-02-24 03:20:00,
2013-02-23 22:21:00,32.5,28.5,29.82,SE,135,0.0,0.0,85,0.00,,,0.03,WUHU21636XXSP,2013-02-24 03:21:00,
2013-02-23 22:22:00,32.5,28.5,29.82,SE,135,0.0,0.0,85,0.00,,,0.03,WUHU21636XXSP,2013-02-24 03:22:00,
2013-02-23 22:25:00,32.5,28.5,29.82,SE,135,0.0,0.0,85,0.00,,,0.03,WUHU21636XXSP,2013-02-24 03:25:00,
2013-02-23 22:26:00,32.5,28.5,29.82,SE,135,0.0,0.0,85,0.00,,,0.03,WUHU21636XXSP,2013-02-24 03:26:00,
2013-02-23 22:27:00,32.5,28.5,29.82,SE,135,0.0,0.0,85,0.00,,,0.03,WUHU21636XXSP,2013-02-24 03:27:00,
2013-02-23 22:30:00,32.5,28.5,29.82,SE,135,0.0,0.0,85,0.00,,,0.03,WUHU21636XXSP,2013-02-24 03:30:00,
2013-02-23 22:31:00,32.5,28.5,29.82,SE,135,0.0,0.0,85,0.00,,,0.03,WUHU21636XXSP,2013-02-24 03:31:00,
2013-02-23 22:32:00,32.5,28.5,29.82,SE,135,0.0,0.0,85,0.00,,,0.03,WUHU21636XXSP,2013-02-24 03:32:00,
2013-02-23 22:35:00,32.5,28.5,29.82,SE,135,0.0,0.0,85,0.00,,,0.03,WUHU21636XXSP,2013-02-24 03:35:00,
2013-02-23 22:37:00,32.5,28.5,29.82,SE,135,0.0,0.0,85,0.00,,,0.03,WUHU21636XXSP,2013-02-24 03:37:00,
2013-02-23 22:40:00,32.5,28.7,29.82,SE,135,0.0,0.0,86,0.00,,,0.03,WUHU21636XXSP,2013-02-24 03:40:00,
2013-02-23 22:42:00,32.3,28.6,29.82,SE,135,0.0,0.0,86,0.00,,,0.03,WUHU21636XXSP,2013-02-24 03:42:00,
2013-02-23 22:43:00,32.3,28.6,29.82,SE,135,0.0,0.0,86,0.00,,,0.03,WUHU21636XXSP,2013-02-24 03:43:00,
2013-02-23 22:46:00,32.3,28.6,29.82,SE,135,0.0,0.0,86,0.00,,,0.03,WUHU21636XXSP,2013-02-24 03:46:00,
2013-02-23 22:47:00,32.3,28.6,29.82,SE,135,0.0,0.0,86,0.00,,,0.03,WUHU21636XXSP,2013-02-24 03:47:00,
2013-02-23 22:48:00,32.3,28.6,29.82,SE,135,0.0,0.0,86,0.00,,,0.03,WUHU21636XXSP,2013-02-24 03:48:00,
2013-02-23 22:51:00,32.2,28.5,29.82,SE,135,0.0,0.0,86,0.00,,,0.03,WUHU21636XXSP,2013-02-24 03:51:00,
2013-02-23 22:52:00,32.2,28.5,29.82,SE,135,0.0,0.0,86,0.00,,,0.03,WUHU21636XXSP,2013-02-24 03:52:00,
2013-02-23 22:53:00,32.2,28.5,29.82,SE,135,0.0,0.0,86,0.00,,,0.03,WUHU21636XXSP,2013-02-24 03:53:00,
2013-02-23 22:56:00,32.2,28.5,29.82,SE,135,0.0,0.0,86,0.00,,,0.03,WUHU21636XXSP,2013-02-24 03:56:00,
2013-02-23 22:57:00,32.2,28.5,29.82,SE,135,0.0,0.0,86,0.00,,,0.03,WUHU21636XXSP,2013-02-24 03:57:00,
2013-02-23 22:58:00,32.2,28.5,29.81,SE,135,0.0,0.0,86,0.00,,,0.03,WUHU21636XXSP,2013-02-24 03:58:00,
2013-02-23 23:01:00,32.2,28.7,29.82,SE,135,0.0,0.0,87,0.00,,,0.03,WUHU21636XXSP,2013-02-24 04:01:00,
2013-02-23 23:02:00,32.2,28.7,29.82,SE,135,0.0,0.0,87,0.00,,,0.03,WUHU21636XXSP,2013-02-24 04:02:00,
2013-02-23 23:03:00,32.2,28.7,29.82,SE,135,0.0,0.0,87,0.00,,,0.03,WUHU21636XXSP,2013-02-24 04:03:00,
2013-02-23 23:04:00,32.0,28.5,29.82,SE,135,0.0,0.0,87,0.00,,,0.03,WUHU21636XXSP,2013-02-24 04:04:00,
2013-02-23 23:06:00,32.0,28.5,29.82,SE,135,0.0,0.0,87,0.00,,,0.03,WUHU21636XXSP,2013-02-24 04:06:00,
2013-02-23 23:07:00,32.0,28.3,29.82,SE,135,0.0,0.0,86,0.00,,,0.03,WUHU21636XXSP,2013-02-24 04:07:00,
2013-02-23 23:08:00,32.0,28.3,29.82,SE,135,0.0,0.0,86,0.00,,,0.03,WUHU21636XXSP,2013-02-24 04:08:00,
2013-02-23 23:09:00,32.0,28.3,29.82,SE,135,0.0,0.0,86,0.00,,,0.03,WUHU21636XXSP,2013-02-24 04:09:00,
2013-02-23 23:11:00,32.0,28.5,29.82,SE,135,0.0,0.0,87,0.00,,,0.03,WUHU21636XXSP,2013-02-24 04:11:00,
2013-02-23 23:12:00,32.0,28.5,29.82,SE,135,0.0,0.0,87,0.00,,,0.03,WUHU21636XXSP,2013-02-24 04:12:00,
2013-02-23 23:13:00,32.0,28.5,29.82,SE,135,0.0,0.0,87,0.00,,,0.03,WUHU21636XXSP,2013-02-24 04:13:00,
2013-02-23 23:14:00,32.0,28.5,29.82,SE,135,0.0,0.0,87,0.00,,,0.03,WUHU21636XXSP,2013-02-24 04:14:00,
2013-02-23 23:16:00,32.0,28.5,29.81,SE,135,0.0,0.0,87,0.00,,,0.03,WUHU21636XXSP,2013-02-24 04:16:00,
2013-02-23 23:17:00,32.0,28.5,29.81,SE,135,0.0,0.0,87,0.00,,,0.03,WUHU21636XXSP,2013-02-24 04:17:00,
2013-02-23 23:18:00,32.0,28.5,29.81,SE,135,0.0,0.0,87,0.00,,,0.03,WUHU21636XXSP,2013-02-24 04:18:00,
2013-02-23 23:19:00,32.0,28.5,29.81,SE,135,0.0,0.0,87,0.00,,,0.03,WUHU21636XXSP,2013-02-24 04:19:00,
2013-02-23 23:21:00,31.8,28.3,29.81,SE,135,0.0,0.0,87,0.00,,,0.03,WUHU21636XXSP,2013-02-24 04:21:00,
2013-02-23 23:22:00,31.6,28.1,29.81,West,270,0.0,0.0,87,0.00,,,0.03,WUHU21636XXSP,2013-02-24 04:22:00,
2013-02-23 23:23:00,31.6,28.1,29.81,West,270,0.0,0.0,87,0.00,,,0.03,WUHU21636XXSP,2013-02-24 04:23:00,
2013-02-23 23:25:00,31.6,28.1,29.81,West,270,0.0,0.0,87,0.00,,,0.03,WUHU21636XXSP,2013-02-24 04:25:00,
2013-02-23 23:26:00,31.6,28.4,29.81,WNW,292,0.0,0.0,88,0.00,,,0.03,WUHU21636XXSP,2013-02-24 04:26:00,
2013-02-23 23:28:00,31.6,28.4,29.81,WNW,292,0.0,0.0,88,0.00,,,0.03,WUHU21636XXSP,2013-02-24 04:28:00,
2013-02-23 23:29:00,31.6,28.4,29.81,WNW,292,0.0,0.0,88,0.00,,,0.03,WUHU21636XXSP,2013-02-24 04:29:00,
2013-02-23 23:30:00,31.6,28.4,29.81,WNW,292,0.0,0.0,88,0.00,,,0.03,WUHU21636XXSP,2013-02-24 04:30:00,
2013-02-23 23:32:00,31.6,28.4,29.80,WNW,292,0.0,0.0,88,0.00,,,0.03,WUHU21636XXSP,2013-02-24 04:32:00,
2013-02-23 23:33:00,31.6,28.4,29.81,WNW,292,0.0,0.0,88,0.00,,,0.03,WUHU21636XXSP,2013-02-24 04:33:00,
2013-02-23 23:34:00,31.6,28.4,29.80,West,270,0.0,0.0,88,0.00,,,0.03,WUHU21636XXSP,2013-02-24 04:34:00,
2013-02-23 23:35:00,31.6,28.4,29.81,West,270,0.0,0.0,88,0.00,,,0.03,WUHU21636XXSP,2013-02-24 04:35:00,
2013-02-23 23:37:00,31.6,28.4,29.80,West,270,0.0,0.0,88,0.00,,,0.03,WUHU21636XXSP,2013-02-24 04:37:00,
2013-02-23 23:38:00,31.4,28.2,29.80,West,270,0.0,0.0,88,0.00,,,0.03,WUHU21636XXSP,2013-02-24 04:38:00,
2013-02-23 23:39:00,31.4,28.2,29.81,West,270,0.0,0.0,88,0.00,,,0.03,WUHU21636XXSP,2013-02-24 04:39:00,
2013-02-23 23:40:00,31.6,28.7,29.81,WNW,292,0.0,0.0,89,0.00,,,0.03,WUHU21636XXSP,2013-02-24 04:40:00,
2013-02-23 23:42:00,31.6,28.7,29.81,West,270,0.0,0.0,89,0.00,,,0.03,WUHU21636XXSP,2013-02-24 04:42:00,
2013-02-23 23:43:00,31.6,28.7,29.81,West,270,0.0,0.0,89,0.00,,,0.03,WUHU21636XXSP,2013-02-24 04:43:00,
2013-02-23 23:44:00,31.4,28.5,29.80,WNW,292,0.0,0.0,89,0.00,,,0.03,WUHU21636XXSP,2013-02-24 04:44:00,
2013-02-23 23:45:00,31.4,28.5,29.80,WNW,292,0.0,0.0,89,0.00,,,0.03,WUHU21636XXSP,2013-02-24 04:45:00,
2013-02-23 23:47:00,31.4,28.5,29.80,West,270,0.0,0.0,89,0.00,,,0.03,WUHU21636XXSP,2013-02-24 04:47:00,
2013-02-23 23:48:00,31.4,28.5,29.80,West,270,0.0,0.0,89,0.00,,,0.03,WUHU21636XXSP,2013-02-24 04:48:00,
2013-02-23 23:49:00,31.4,28.5,29.80,West,270,0.0,0.0,89,0.00,,,0.03,WUHU21636XXSP,2013-02-24 04:49:00,
2013-02-23 23:50:00,31.4,28.5,29.80,WNW,292,0.0,0.0,89,0.00,,,0.03,WUHU21636XXSP,2013-02-24 04:50:00,
2013-02-23 23:52:00,31.4,28.5,29.80,West,270,0.0,0.0,89,0.00,,,0.03,WUHU21636XXSP,2013-02-24 04:52:00,
2013-02-23 23:53:00,31.4,28.5,29.80,West,270,0.0,0.0,89,0.00,,,0.03,WUHU21636XXSP,2013-02-24 04:53:00,
2013-02-23 23:54:00,31.4,28.5,29.80,WNW,292,0.0,0.0,89,0.00,,,0.03,WUHU21636XXSP,2013-02-24 04:54:00,
2013-02-23 23:55:00,31.4,28.5,29.80,WNW,292,0.0,0.0,89,0.00,,,0.03,WUHU21636XXSP,2013-02-24 04:55:00,
2013-02-23 23:58:00,31.4,28.5,29.80,WNW,292,0.0,0.0,89,0.00,,,0.03,WUHU21636XXSP,2013-02-24 04:58:00,